[{"header": {"dx": 0.06612293990616946, "dy": 0.0552356325346848, "nx": 98, "ny": 59, "la1": 35.046912555036876, "la2": 31.78801023549047, "lo1": -121.43107172385933, "lo2": -114.95102361305473, "refTime": "2026041216", "parameterCategory": 1, "parameterNumber": 2}, "data": [4.43, 4.47, 4.88, 4.8, 5.09, 5.4, 5.81, 5.6, 5.6, 5.6, 5.6, 5.81, 6.7, 6.16, 5.2, 3.83, 2.84, 3.16, 4.11, 4.11, 5.01, 5.36, 5.21, 5.82, 6.21, 6.8, 6.8, 6.8, 6.8, 6.57, 6.02, 5.29, 1.26, -1.9, 0.0, 1.9, 3.58, 3.79, 4.54, 3.79, 3.95, 4.4, 5.36, 5.69, 6.64, 6.64, 6.53, 6.42, 6.7, 6.7, 7.18, 7.48, 7.78, 7.82, 8.12, 9.26, 9.62, 10.01, 10.01, 10.66, 10.28, 8.68, 6.64, 4.83, 5.1, 6.64, 7.59, 8.65, 9.66, 10.29, 10.66, 10.63, 10.55, 9.36, 5.82, 2.4, 1.34, -1.79, -2.68, -2.97, -2.21, -2.21, -1.4, -1.58, -1.26, 0.0, 0.89, -0.0, -0.96, -1.84, -0.95, -0.0, -0.0, 0.88, 0.88, 0.96, -0.0, -0.0, 4.47, 4.92, 4.89, 5.24, 5.51, 5.81, 5.81, 6.0, 5.6, 5.6, 5.6, 6.8, 6.7, 5.75, 5.81, 4.46, 2.53, 3.48, 4.46, 3.93, 5.01, 5.01, 5.36, 6.08, 5.58, 5.82, 6.21, 6.21, 6.57, 6.16, 5.51, 5.2, 3.9, 0.0, -0.87, 0.0, 1.8, 2.95, 3.63, 3.48, 4.34, 4.29, 4.14, 4.42, 5.59, 6.18, 5.76, 5.76, 6.53, 6.42, 7.18, 7.48, 7.48, 7.9, 8.57, 9.27, 9.66, 9.66, 10.28, 10.28, 9.04, 6.64, 4.83, 4.26, 5.89, 7.27, 7.9, 8.93, 9.62, 10.66, 10.29, 11.02, 10.55, 8.0, 4.0, 1.34, -1.79, -1.79, -2.68, -2.97, -2.21, -2.21, -1.4, -1.58, -1.26, 0.0, 0.89, -0.0, -0.96, -1.84, -0.95, -0.0, -0.0, 0.88, 0.88, 0.96, -0.0, -0.0, 4.92, 4.89, 5.24, 5.09, 5.31, 5.81, 5.81, 6.3, 6.0, 5.81, 5.81, 5.6, 6.7, 6.16, 5.34, 4.22, 2.68, 3.16, 3.93, 4.84, 3.93, 4.84, 5.01, 5.93, 6.63, 5.82, 5.82, 5.82, 5.2, 5.09, 5.2, 5.49, 5.24, 5.36, 2.8, 0.0, 0.0, 0.96, 2.76, 3.9, 3.63, 3.79, 4.42, 4.42, 4.95, 5.24, 5.1, 5.89, 6.04, 6.83, 6.7, 7.18, 7.59, 8.31, 8.59, 9.67, 10.04, 10.28, 10.23, 9.65, 7.76, 5.24, 4.03, 5.36, 6.42, 7.36, 8.42, 9.17, 9.56, 10.28, 10.29, 10.63, 9.6, 6.21, 2.97, 1.34, -1.79, -3.13, -2.97, -2.98, -2.98, -3.39, -2.8, -2.4, -1.0, 0.0, 0.89, -2.0, -2.64, -3.55, -2.8, -1.99, -0.96, -0.0, -0.0, -0.0, -0.0, -0.96, 5.36, 5.33, 5.24, 5.51, 5.4, 5.81, 6.3, 6.3, 6.3, 5.81, 5.81, 5.81, 6.7, 6.28, 5.75, 4.84, 4.19, 3.93, 3.58, 4.22, 4.57, 4.66, 5.09, 5.2, 5.82, 6.98, 5.49, 4.89, 3.93, 3.93, 4.01, 4.26, 4.83, 6.58, 6.28, 4.84, 4.0, 4.02, 3.47, 3.79, 3.4, 3.4, 3.55, 4.58, 4.58, 4.16, 4.83, 5.89, 5.76, 6.24, 6.64, 7.35, 7.68, 8.38, 9.04, 9.04, 9.65, 10.04, 9.65, 8.06, 5.24, 3.55, 4.5, 5.9, 6.45, 7.12, 8.18, 8.73, 9.8, 10.18, 10.63, 10.29, 8.67, 4.22, 0.89, 1.34, -1.79, -3.13, -3.39, -3.39, -2.97, -3.39, -2.8, -1.2, 0.0, 1.79, -1.13, -3.47, -4.42, -3.72, -3.63, -2.76, -2.0, -0.0, -0.0, -0.0, -0.88, -0.96, 5.36, 5.78, 5.7, 5.57, 5.99, 5.88, 6.3, 6.3, 6.3, 6.04, 5.99, 5.57, 6.02, 5.94, 5.75, 5.6, 4.46, 4.22, 4.0, 4.15, 5.2, 5.09, 4.66, 5.2, 5.2, 6.28, 5.03, 4.29, 3.0, 2.6, 3.33, 3.77, 4.42, 5.24, 6.32, 5.59, 6.63, 6.9, 5.21, 3.55, 3.45, 4.26, 4.03, 4.42, 4.16, 4.42, 5.1, 5.89, 5.89, 5.89, 6.73, 7.06, 7.35, 8.03, 8.68, 9.43, 9.65, 9.65, 8.82, 5.77, 3.47, 3.4, 5.06, 5.86, 6.43, 7.25, 8.05, 8.84, 9.6, 10.43, 10.18, 10.63, 8.94, 4.54, -1.79, -2.24, -2.68, -3.58, -3.39, -2.54, -2.54, -3.13, -2.4, 0.0, 1.34, -0.0, -2.8, -4.16, -4.58, -3.47, -2.8, -2.99, -0.96, -0.0, -0.0, -0.0, -0.96, -1.83, 5.81, 5.78, 5.7, 6.14, 6.04, 6.47, 6.47, 6.47, 6.47, 6.16, 5.7, 5.09, 6.02, 5.51, 5.51, 5.51, 4.8, 4.98, 4.57, 4.38, 4.57, 4.22, 4.65, 5.01, 4.43, 4.29, 5.03, 4.14, 3.6, 3.8, 3.72, 3.79, 3.79, 4.43, 5.43, 5.37, 6.11, 6.82, 4.74, 1.72, 1.65, 3.7, 4.34, 4.96, 4.71, 4.96, 5.89, 5.59, 6.01, 6.01, 6.39, 6.73, 7.35, 8.03, 8.68, 9.43, 9.05, 8.82, 6.79, 4.01, 2.8, 3.45, 4.87, 4.81, 5.67, 7.36, 8.05, 8.05, 9.7, 10.51, 10.58, 10.66, 9.66, 6.82, 1.34, -3.13, -3.13, -3.39, -3.39, -2.4, -2.68, -3.13, -3.13, -1.9, -2.23, -3.91, -5.06, -4.58, -4.29, -3.47, -2.64, -0.96, -0.0, 1.05, 0.88, -0.0, -1.05, -1.83, 5.81, 5.78, 5.78, 6.14, 6.04, 6.47, 6.51, 7.06, 6.61, 6.16, 5.7, 5.09, 6.02, 5.09, 6.14, 5.26, 5.09, 5.26, 4.82, 4.38, 3.9, 3.9, 4.0, 4.6, 5.36, 4.02, 4.02, 3.91, 5.03, 4.58, 5.36, 2.68, 2.68, 3.35, 4.29, 4.65, 5.77, 6.98, 4.29, -0.0, -0.0, 1.32, 3.52, 3.7, 4.88, 5.76, 5.76, 5.89, 5.1, 6.01, 6.95, 6.64, 7.35, 7.76, 8.06, 8.67, 8.06, 6.44, 4.43, 2.76, 2.82, 3.25, 3.96, 4.0, 5.67, 7.13, 8.05, 8.66, 9.89, 10.91, 10.66, 10.0, 9.49, 7.76, 2.68, -3.13, -3.58, -2.97, -3.39, -4.47, -3.35, -3.16, -3.93, -4.29, -5.58, -5.82, -5.82, -5.49, -3.72, -3.47, -2.4, -0.0, 1.7, 2.8, 2.8, -0.0, -0.96, -2.0, 6.23, 6.23, 6.16, 6.04, 6.47, 6.51, 7.06, 7.06, 6.61, 6.16, 5.7, 5.09, 5.94, 5.09, 5.64, 4.85, 4.85, 5.29, 4.85, 4.47, 3.58, 3.13, 3.39, 4.02, 4.02, 5.09, 4.46, 4.43, 5.36, 5.36, 3.79, 1.41, 1.32, 3.68, 4.29, 4.81, 4.81, 5.82, 4.29, -0.0, -0.0, -0.0, 2.66, 3.6, 4.46, 4.66, 5.76, 6.04, 5.64, 6.69, 6.18, 6.64, 7.76, 7.41, 7.81, 7.81, 6.79, 3.63, 1.98, 2.0, 2.44, 2.44, 3.23, 4.1, 5.48, 7.25, 8.66, 9.62, 10.28, 11.5, 11.11, 9.7, 8.45, 6.2, 2.4, -2.0, -2.98, -2.98, -3.9, -4.47, -4.38, -4.19, -4.46, -5.75, -6.0, -6.4, -5.43, -4.58, -2.8, -0.88, -0.0, 0.87, 1.99, 3.47, 3.47, 0.88, -0.96, -2.0, 6.23, 6.16, 6.04, 6.47, 6.51, 6.94, 7.06, 7.06, 7.06, 6.16, 5.7, 4.77, 6.14, 5.51, 5.51, 4.98, 5.26, 4.85, 4.82, 4.47, 4.47, 3.58, 2.21, 2.53, 3.39, 4.92, 4.92, 4.66, 5.2, 5.2, 2.4, 1.41, 2.8, 4.74, 5.21, 4.8, 4.66, 3.48, 1.41, -0.0, -0.0, 1.32, 2.49, 2.49, 3.91, 3.91, 4.4, 5.92, 6.45, 6.57, 6.98, 6.64, 7.02, 7.41, 6.73, 6.01, 4.29, 1.13, 1.58, 1.7, 1.69, 2.37, 2.44, 4.06, 5.6, 7.9, 9.48, 10.29, 10.43, 10.16, 9.39, 7.6, 6.65, 4.02, 1.34, -1.79, -2.8, -2.98, -3.9, -4.02, -3.58, -4.15, -4.66, -4.66, -5.16, -5.34, -4.46, -3.47, -1.6, -0.0, 0.88, 1.8, 2.68, 3.35, 3.63, 1.99, -0.0, -2.23, 6.23, 6.16, 6.04, 6.47, 6.94, 6.97, 7.4, 6.97, 6.94, 6.6, 5.7, 4.77, 4.77, 5.24, 6.02, 5.51, 5.73, 5.29, 5.2, 4.92, 4.47, 3.58, 2.68, 1.9, 3.6, 4.47, 4.47, 3.58, 4.24, 4.65, 3.79, 2.73, 3.48, 4.66, 5.2, 5.2, 3.2, -0.0, -0.0, -0.0, 0.88, 1.84, 2.6, 3.63, 3.11, 3.27, 4.0, 5.64, 7.08, 7.08, 6.7, 6.7, 6.83, 5.76, 4.96, 4.83, 2.8, 1.2, 1.2, 0.84, 1.64, 1.65, 3.14, 3.96, 6.21, 7.9, 9.17, 9.19, 8.24, 6.65, 5.29, 4.22, 3.6, 1.26, 1.34, -1.34, -1.79, -2.68, -3.58, -3.13, -2.24, -1.26, -2.68, -2.24, -2.24, -2.0, -0.87, -0.76, -0.78, -0.0, 0.81, 1.66, 2.23, 2.23, 2.95, 2.0, -0.0, -2.53, 5.78, 6.14, 6.04, 6.51, 6.94, 7.4, 7.4, 6.97, 6.94, 6.51, 6.14, 5.33, 4.89, 4.89, 6.2, 6.2, 6.2, 5.33, 5.34, 5.33, 5.81, 5.36, 4.47, 3.58, 4.02, 4.47, 4.47, 4.02, 4.0, 5.2, 5.2, 3.35, 2.4, 2.24, 3.13, 4.24, 1.55, -0.0, -0.0, 1.7, 1.84, 2.6, 2.6, 2.8, 2.49, 2.4, 4.12, 4.96, 5.76, 6.04, 5.86, 6.21, 5.72, 4.06, 4.01, 4.01, 3.21, 1.99, 0.88, 0.79, 0.78, 1.61, 2.45, 3.87, 5.55, 7.36, 7.49, 6.33, 4.07, 0.96, -1.26, 0.0, 0.0, -2.0, -2.68, -2.24, -2.4, -3.39, -3.39, -3.13, -1.34, 1.34, 2.68, 1.26, 2.4, 3.13, 3.22, 0.82, -1.45, -1.45, -0.0, -0.0, -0.0, 1.2, 2.53, 1.13, -0.99, -2.21, 5.78, 6.14, 6.16, 6.51, 6.94, 7.4, 7.4, 7.4, 6.94, 7.06, 6.16, 5.34, 4.89, 5.33, 5.33, 5.78, 5.78, 5.79, 6.23, 6.26, 6.26, 5.81, 5.36, 6.26, 5.36, 5.36, 5.36, 3.07, 4.34, 5.64, 5.64, 3.35, 2.4, 2.24, 2.97, 2.54, 0.76, -0.0, -0.0, 1.83, 2.6, 2.6, 2.6, 1.23, 1.32, 1.73, 2.83, 3.7, 3.87, 3.45, 3.91, 4.71, 4.04, 2.37, 2.43, 3.1, 4.76, 3.51, -0.0, -0.0, -0.0, 1.57, 1.61, 3.25, 4.07, 4.67, 4.7, 3.26, 3.16, 2.39, -0.0, -3.2, -3.48, -3.9, -3.9, -3.58, -3.58, -3.58, -2.0, -0.0, 1.2, 3.72, 5.2, 4.02, 5.36, 6.55, 5.43, 0.82, -3.0, -3.0, -2.29, -0.88, -0.99, -0.0, -0.0, -0.0, -1.4, -2.8, 5.78, 6.16, 6.6, 6.94, 6.97, 7.4, 7.51, 7.51, 7.07, 7.06, 6.6, 5.7, 5.24, 5.24, 5.34, 5.78, 5.78, 6.23, 6.26, 6.71, 6.71, 6.68, 6.23, 5.78, 5.34, 5.36, 5.36, 4.92, 4.47, 4.44, 5.29, 4.38, 3.58, 3.47, 2.54, 1.34, -0.0, -0.0, -0.0, 1.83, 2.6, 2.47, 1.6, -0.0, -0.0, -0.0, 1.14, 2.33, 2.46, 2.28, 2.21, 2.25, 0.71, -0.0, 1.1, 2.24, 5.62, 7.28, 0.78, -1.64, -0.0, 1.57, 1.61, 0.79, 0.8, 1.62, 2.2, 1.63, 2.43, 6.42, 8.03, 4.03, -2.53, -4.29, -4.0, -4.0, -2.8, 1.34, 1.58, 2.98, 3.83, 5.82, 6.7, 7.81, 7.44, 9.05, 6.79, -0.0, -4.11, -3.72, -3.35, -2.53, -2.68, -3.16, -2.23, -2.53, -2.21, -2.53, 5.78, 6.16, 6.6, 6.94, 6.97, 7.51, 7.51, 7.51, 7.51, 7.07, 6.6, 5.7, 5.24, 5.24, 5.7, 5.7, 5.7, 6.23, 6.68, 6.71, 7.15, 6.68, 6.68, 6.6, 6.16, 6.16, 6.23, 6.23, 5.78, 5.36, 5.36, 5.36, 5.64, 4.38, 3.58, 2.24, 1.0, -0.0, -0.0, 1.83, 1.99, 1.7, 1.23, -0.0, -0.0, -0.0, -0.0, 1.18, 1.14, 1.2, 1.26, -0.0, -0.0, -0.0, -0.0, 1.43, 4.72, 7.92, 3.6, -2.49, -2.37, -0.0, -0.0, -0.0, -0.0, -0.0, -0.0, -0.0, 2.18, 5.55, 9.28, 11.38, 7.76, 0.0, -3.35, -2.21, 1.4, 4.29, 6.73, 7.81, 7.82, 8.0, 8.24, 7.28, 7.95, 10.04, 7.41, 0.88, -3.58, -4.4, -4.46, -4.46, -4.84, -4.54, -3.83, -3.35, -2.98, -3.35, 5.7, 6.16, 6.6, 7.06, 7.07, 7.51, 7.51, 7.51, 7.51, 7.13, 6.68, 5.7, 5.24, 5.24, 5.67, 5.7, 5.7, 6.16, 6.68, 7.15, 7.15, 7.15, 7.13, 7.06, 6.51, 6.51, 6.51, 6.94, 6.61, 6.6, 6.16, 5.99, 7.21, 6.58, 5.36, 4.24, 2.4, 0.88, 1.55, 1.8, 2.0, 1.3, 1.3, 1.3, -0.0, -0.0, -0.0, -0.0, -0.0, -0.0, 1.25, -0.0, -0.0, -0.0, -0.0, 1.18, 3.6, 5.86, 4.24, -1.14, -3.95, -2.33, -1.11, -0.0, -0.0, -0.0, -0.0, 1.16, 3.45, 6.58, 7.27, 10.66, 12.15, 8.0, 3.13, 2.95, 5.64, 8.76, 10.51, 11.25, 10.9, 10.23, 8.8, 6.0, 3.6, 8.06, 6.21, 1.27, -1.9, -3.6, -5.2, -5.75, -5.86, -5.34, -4.22, -3.35, -3.35, -3.35, 6.14, 6.16, 6.6, 7.06, 7.51, 7.51, 7.51, 7.51, 7.58, 7.13, 6.68, 5.7, 5.24, 5.24, 5.24, 5.67, 5.7, 6.6, 6.68, 7.15, 7.15, 7.15, 7.15, 7.13, 7.07, 7.06, 6.94, 6.94, 6.94, 6.94, 6.94, 7.26, 7.4, 8.41, 7.15, 5.34, 5.15, 3.35, 2.48, 1.27, 0.98, 0.88, 1.7, 1.3, -0.0, -0.0, -0.0, -0.0, -0.0, -0.0, -0.0, -0.0, -0.0, -0.0, -0.0, -0.0, 1.32, 2.33, 2.23, -0.0, -1.65, -4.46, -3.4, -2.21, -1.14, -0.0, -0.0, 2.49, 6.16, 7.9, 7.42, 9.54, 11.37, 11.2, 9.66, 9.8, 10.65, 11.76, 12.84, 13.51, 12.52, 11.53, 8.42, 1.98, -2.24, -1.79, 2.8, -0.0, -0.0, -1.13, -3.58, -5.59, -5.59, -4.66, -3.2, -2.98, -2.98, -2.98, 6.16, 6.16, 6.61, 7.06, 7.51, 7.51, 7.58, 7.58, 7.58, 7.13, 6.68, 5.7, 5.24, 5.24, 5.24, 5.24, 5.7, 6.68, 6.68, 7.15, 7.15, 7.15, 7.6, 7.6, 7.58, 7.58, 7.51, 7.4, 7.4, 7.69, 7.69, 8.17, 8.64, 10.22, 8.05, 7.45, 6.8, 5.01, 2.48, 1.19, 1.3, 0.96, 1.41, 0.96, -0.0, -0.0, -0.0, -0.0, -0.0, -0.0, -0.0, -0.0, 1.55, 1.3, -0.0, -0.0, -0.0, 1.3, 1.14, 1.32, -0.0, -2.6, -4.11, -2.98, -2.6, -0.82, -0.0, 1.25, 5.69, 10.59, 11.03, 8.36, 9.9, 11.88, 12.49, 12.42, 12.78, 13.85, 14.13, 13.51, 13.26, 12.52, 10.04, 2.53, -3.39, -2.4, -1.79, -0.0, -0.0, -0.0, -1.98, -3.6, -3.83, -3.6, -3.39, -2.97, -2.6, -2.6, 6.16, 6.16, 6.61, 7.06, 7.51, 7.58, 7.58, 7.58, 7.58, 7.13, 6.23, 5.78, 5.24, 5.24, 5.24, 5.24, 5.78, 6.23, 6.68, 7.13, 7.15, 7.15, 7.6, 7.6, 7.6, 7.58, 7.51, 7.4, 7.4, 7.69, 7.74, 8.17, 8.64, 9.23, 8.92, 9.39, 7.71, 6.52, 3.76, 1.41, 1.41, 1.41, 1.3, 1.3, -0.0, -0.0, -0.0, -0.0, -0.0, -0.0, -0.0, -0.0, 1.6, 1.41, 1.55, 1.55, 1.41, 1.41, 1.41, 2.73, 1.19, -0.0, -1.41, -2.0, -1.55, -0.96, -0.0, -0.0, 4.43, 10.62, 13.02, 10.18, 10.43, 12.23, 13.1, 12.89, 13.49, 14.07, 14.46, 13.83, 12.86, 12.27, 11.26, 2.0, 0.0, 1.34, 2.8, 1.13, 1.83, 2.8, 3.47, 2.0, -0.0, -0.0, -1.2, -1.9, -1.0, -1.0, 6.16, 6.6, 6.61, 7.13, 7.58, 7.58, 7.58, 7.58, 7.13, 6.68, 6.23, 5.78, 5.24, 5.24, 5.24, 6.2, 5.78, 6.23, 6.68, 7.13, 7.15, 7.15, 6.71, 8.05, 7.15, 8.05, 5.7, 7.42, 7.42, 6.47, 6.94, 7.4, 8.3, 8.77, 9.32, 8.94, 8.47, 7.37, 5.82, 4.11, 2.95, 2.2, 1.55, 1.55, 1.7, 1.55, -0.0, -0.0, -0.0, 1.41, 1.41, 1.41, 1.41, 1.55, 1.3, 1.55, 1.41, 2.98, 3.22, 2.98, 1.55, 1.41, -0.0, -0.0, -0.0, -0.0, -0.0, 1.2, 4.02, 8.49, 11.12, 10.45, 11.84, 13.65, 14.22, 13.32, 12.94, 13.31, 13.49, 13.23, 12.3, 12.09, 10.45, 7.12, 5.36, 4.38, 4.6, 4.46, 2.76, 3.11, 4.95, 5.37, 4.54, 2.41, 2.84, 2.21, 1.2, 1.2, 6.16, 6.6, 7.13, 7.13, 7.58, 7.58, 7.58, 7.15, 7.15, 6.68, 5.78, 5.34, 5.24, 5.24, 5.24, 5.7, 5.78, 5.78, 7.55, 7.55, 7.6, 6.26, 6.26, 7.15, 7.15, 7.15, 7.15, 6.26, 6.26, 6.23, 6.68, 7.13, 7.58, 8.03, 8.47, 8.92, 8.94, 8.05, 6.61, 4.77, 3.07, 2.5, 2.15, 1.9, 1.2, 2.0, 1.8, 1.8, 1.8, 1.41, 1.41, 1.55, 1.55, 1.3, 1.83, 2.76, 2.6, 3.07, 3.48, 4.09, 3.16, 1.8, -0.0, -0.0, -0.0, -0.0, 0.96, 3.6, 5.36, 7.42, 9.36, 10.28, 12.96, 14.55, 14.64, 12.98, 11.62, 11.37, 12.07, 12.49, 12.41, 11.96, 11.06, 9.24, 8.33, 6.79, 6.0, 6.4, 4.46, 4.46, 5.15, 5.37, 4.74, 3.63, 3.79, 3.79, 3.93, 3.93, 6.16, 6.61, 7.13, 7.13, 7.58, 7.6, 7.15, 7.15, 7.15, 6.26, 5.78, 5.34, 5.24, 5.24, 5.24, 5.78, 5.78, 6.23, 6.23, 7.6, 7.6, 6.23, 6.26, 6.71, 6.71, 7.15, 7.15, 7.15, 7.15, 7.15, 7.15, 7.15, 7.6, 8.05, 8.49, 8.49, 8.94, 8.94, 8.49, 7.06, 4.77, 3.39, 2.8, 2.23, 1.49, 1.41, 1.41, 1.8, 1.8, 2.0, 1.41, 1.55, 1.7, 1.3, 2.6, 2.76, 3.63, 4.11, 4.84, 3.16, 3.6, 2.53, 1.41, -0.0, -0.0, -0.0, 0.88, 3.48, 5.75, 6.51, 8.14, 11.18, 12.86, 12.58, 11.26, 10.66, 8.93, 9.04, 9.9, 10.6, 11.62, 11.96, 11.8, 10.05, 9.06, 8.14, 7.63, 7.47, 7.47, 5.86, 5.21, 4.74, 3.72, 2.4, 3.07, 4.19, 4.46, 4.46, 6.6, 6.68, 7.13, 7.58, 7.6, 7.6, 7.15, 7.15, 6.71, 6.26, 5.78, 5.34, 5.33, 5.24, 5.33, 5.78, 5.78, 6.26, 6.26, 6.71, 7.13, 7.13, 7.13, 7.15, 7.6, 7.6, 7.6, 7.6, 7.6, 7.6, 7.6, 7.6, 7.6, 8.05, 8.49, 8.49, 8.92, 8.92, 9.37, 9.32, 7.87, 6.04, 4.6, 2.68, 1.4, 1.16, 2.73, 2.0, 2.0, 1.41, 1.41, 1.55, 1.7, 1.3, 2.4, 2.6, 3.47, 4.58, 4.11, 2.84, 2.21, 2.53, 1.55, -0.0, -0.0, -0.0, 0.96, 2.76, 4.03, 4.88, 5.64, 9.77, 10.12, 5.2, 1.84, 4.83, 6.58, 6.51, 7.31, 8.24, 9.7, 10.7, 11.8, 11.79, 10.85, 9.36, 8.0, 8.0, 7.67, 6.4, 4.46, 3.11, 2.47, 2.4, 2.3, 3.48, 4.98, 4.98, 6.68, 6.68, 6.68, 7.58, 7.6, 7.15, 7.15, 7.15, 6.71, 5.81, 5.78, 5.34, 5.33, 5.24, 5.34, 5.78, 5.78, 6.26, 6.26, 6.71, 7.15, 7.6, 7.6, 7.6, 7.6, 8.05, 8.05, 8.05, 8.05, 8.05, 8.05, 8.05, 7.6, 8.05, 8.03, 8.47, 8.92, 8.92, 9.37, 9.77, 9.77, 9.23, 7.87, 6.3, 3.78, 2.48, 2.73, 2.73, 2.73, 2.73, 2.98, 2.98, 2.73, 1.55, 2.98, 2.4, 3.47, 4.42, 4.29, 2.21, 1.2, 1.83, 1.63, 0.83, 0.89, 1.72, 1.84, 2.6, 3.27, 2.47, 3.68, 5.8, 11.28, 2.73, -3.58, 0.79, 3.33, 4.71, 5.13, 6.01, 7.2, 8.9, 10.25, 11.18, 11.5, 10.04, 8.82, 7.81, 7.76, 7.41, 4.43, 3.72, 3.22, 2.53, 2.41, 3.16, 3.58, 3.58, 6.68, 6.68, 6.68, 7.13, 7.6, 7.15, 7.15, 7.15, 6.71, 5.81, 5.78, 5.34, 5.33, 5.24, 5.78, 5.78, 5.78, 6.23, 6.26, 6.71, 7.15, 7.15, 7.6, 7.6, 7.6, 8.05, 8.05, 8.05, 7.6, 7.6, 8.05, 8.05, 7.58, 7.58, 8.03, 8.03, 8.47, 8.86, 8.87, 9.32, 9.77, 9.68, 9.68, 9.54, 7.71, 4.74, 3.45, 4.02, 3.76, 3.76, 4.43, 4.11, 2.98, 2.73, 2.73, 2.98, 2.53, 3.33, 4.75, 2.98, 1.13, 1.84, 2.67, 2.51, 1.72, 1.84, 2.67, 3.6, 3.4, 2.51, 3.33, 11.2, 15.09, 13.88, 9.3, 4.92, 2.8, 2.4, 3.6, 4.03, 5.37, 6.94, 8.46, 9.36, 9.97, 9.36, 8.05, 7.44, 7.06, 7.68, 6.11, 5.09, 4.46, 2.53, 2.21, 1.74, 1.98, 1.98, 6.68, 6.68, 6.71, 7.15, 7.15, 7.15, 7.15, 7.15, 6.26, 5.81, 5.78, 5.34, 5.33, 5.34, 5.78, 5.78, 5.78, 6.23, 6.23, 6.71, 6.71, 7.15, 7.6, 7.6, 7.6, 7.6, 7.6, 7.6, 7.6, 7.6, 7.6, 7.6, 7.6, 7.6, 7.58, 7.58, 8.03, 8.47, 8.42, 8.86, 8.86, 9.23, 9.68, 9.68, 9.39, 7.48, 5.37, 4.74, 4.71, 4.65, 4.37, 5.01, 3.79, 2.73, 2.73, 2.73, 2.73, 2.76, 3.68, 3.68, 2.32, 2.47, 2.64, 2.64, 1.72, 1.73, 3.27, 3.6, 3.4, 3.63, 5.82, 8.05, 11.52, 13.67, 15.39, 10.91, 4.15, 0.82, 1.32, 2.64, 4.16, 5.43, 6.79, 7.12, 8.0, 7.63, 6.8, 6.18, 6.01, 6.64, 8.93, 7.28, 5.86, 3.47, 1.79, 1.58, 1.2, 1.2, 6.71, 6.71, 6.71, 6.71, 7.15, 7.15, 7.15, 6.71, 6.26, 5.81, 5.34, 5.33, 5.33, 5.78, 5.78, 5.78, 5.78, 6.23, 6.23, 6.71, 6.71, 7.15, 7.15, 7.6, 7.6, 7.6, 7.6, 7.6, 7.6, 7.6, 7.6, 7.6, 7.6, 7.6, 7.6, 7.58, 7.58, 7.58, 7.97, 8.41, 8.33, 8.77, 8.77, 9.23, 9.11, 8.22, 6.95, 5.59, 5.29, 4.84, 4.55, 4.0, 4.11, 4.11, 3.79, 3.79, 2.73, 1.19, 2.16, 3.4, 3.6, 4.14, 3.47, 2.47, 1.63, 2.4, 3.27, 3.4, 2.6, 2.76, 4.43, 6.32, 7.27, 10.12, 13.67, 14.7, 6.08, -0.88, 0.0, 1.84, 2.6, 4.11, 4.8, 4.92, 5.31, 5.6, 5.58, 5.06, 5.69, 5.94, 7.82, 9.57, 8.24, 5.16, 3.58, 3.39, 2.98, 2.98, 6.71, 6.71, 6.71, 6.71, 6.71, 7.15, 7.15, 7.15, 6.26, 5.78, 5.34, 5.34, 5.34, 5.78, 5.78, 5.78, 5.78, 6.23, 6.26, 6.71, 6.71, 7.15, 7.15, 7.6, 7.6, 7.6, 7.6, 7.6, 7.6, 7.15, 7.15, 7.15, 7.15, 7.15, 7.15, 7.15, 7.13, 7.58, 7.58, 7.51, 7.97, 7.97, 8.3, 8.64, 8.64, 8.17, 6.8, 6.28, 5.75, 5.47, 4.93, 4.8, 4.27, 3.43, 4.19, 3.79, 4.11, 2.73, 1.66, 2.6, 4.75, 5.06, 5.37, 2.64, 2.21, 2.51, 3.2, 1.7, 1.7, 2.6, 4.43, 5.82, 6.39, 7.97, 10.58, 14.86, 10.66, -1.8, -3.63, 0.0, 1.08, 1.13, 1.9, 2.24, 2.6, 3.58, 4.43, 5.37, 6.01, 6.18, 7.27, 10.19, 11.28, 9.03, 6.54, 6.28, 6.0, 6.0, 6.71, 6.71, 6.71, 6.71, 6.71, 6.71, 6.71, 6.71, 6.26, 5.78, 5.34, 5.34, 5.78, 5.78, 5.78, 5.78, 5.78, 5.81, 6.26, 6.71, 6.71, 7.15, 7.15, 7.6, 7.58, 7.58, 7.58, 7.13, 7.15, 7.15, 6.71, 6.71, 6.71, 6.71, 6.71, 7.15, 7.13, 7.13, 7.58, 7.58, 7.51, 7.97, 7.87, 7.87, 7.4, 6.94, 6.47, 6.51, 6.0, 5.47, 5.31, 4.8, 4.27, 3.72, 3.72, 4.19, 4.11, 2.98, 1.83, 2.4, 4.01, 5.06, 4.16, 3.4, 3.4, 3.91, 2.6, 1.83, 2.53, 4.43, 5.82, 6.8, 6.16, 6.7, 8.72, 13.65, 14.87, 4.82, -3.63, -2.53, -1.13, -1.0, 0.89, -0.0, 1.0, 1.74, 3.07, 5.37, 5.89, 6.95, 7.59, 9.66, 12.89, 12.01, 10.65, 9.2, 8.4, 8.4, 6.71, 6.71, 6.71, 6.26, 6.26, 6.71, 6.71, 6.71, 6.26, 5.81, 5.34, 5.78, 5.78, 5.78, 5.78, 5.81, 5.81, 5.81, 6.26, 6.71, 6.71, 7.15, 7.13, 7.13, 7.13, 7.15, 7.15, 7.15, 6.71, 6.71, 6.71, 6.71, 6.71, 6.71, 6.71, 6.71, 6.71, 7.13, 7.13, 7.58, 7.51, 7.51, 7.51, 8.33, 7.71, 6.47, 6.16, 5.57, 5.31, 5.08, 4.8, 4.8, 4.4, 4.52, 4.11, 3.88, 5.01, 3.49, 2.76, 2.99, 4.43, 4.29, 3.55, 3.77, 4.42, 3.55, 3.77, 4.43, 4.6, 5.82, 7.03, 7.76, 7.42, 7.1, 9.54, 13.49, 15.63, 13.84, 8.01, 0.98, -0.98, -1.0, 0.89, 1.58, 2.98, 3.6, 3.84, 5.82, 6.73, 7.68, 8.73, 10.04, 11.69, 13.54, 13.29, 11.6, 10.0, 10.0, 6.71, 6.71, 6.71, 6.26, 6.26, 6.26, 6.71, 6.26, 5.81, 5.81, 5.34, 5.78, 5.78, 5.81, 5.81, 5.81, 5.81, 6.26, 6.26, 6.71, 6.71, 6.68, 6.68, 6.68, 6.71, 6.71, 6.71, 6.71, 6.71, 6.71, 6.71, 6.71, 6.26, 6.26, 6.26, 6.26, 6.71, 6.68, 7.13, 7.58, 7.51, 7.51, 7.51, 7.4, 7.26, 7.71, 6.94, 5.09, 5.31, 5.08, 5.08, 5.31, 4.8, 5.02, 4.6, 4.4, 4.0, 3.79, 3.63, 3.35, 3.63, 4.01, 3.72, 4.29, 3.33, 2.51, 4.12, 6.3, 5.15, 4.84, 6.8, 8.0, 9.97, 10.28, 10.95, 12.7, 13.49, 13.86, 14.67, 12.52, 7.12, 3.32, 3.51, 4.8, 6.23, 6.94, 6.94, 7.6, 8.24, 8.88, 8.93, 10.63, 11.99, 13.83, 13.85, 12.9, 11.3, 11.3, 6.71, 6.71, 6.71, 6.26, 6.26, 6.26, 6.26, 5.81, 5.81, 5.34, 5.34, 5.81, 5.81, 5.81, 5.81, 5.81, 5.81, 6.26, 6.26, 6.71, 6.68, 6.68, 6.68, 6.68, 6.68, 6.71, 6.71, 6.71, 6.71, 6.26, 6.26, 6.26, 6.26, 5.81, 5.81, 6.26, 6.26, 6.68, 6.68, 7.13, 7.51, 7.51, 7.51, 7.4, 6.94, 7.89, 7.21, 5.81, 5.6, 5.6, 5.6, 5.72, 5.31, 5.51, 4.9, 4.8, 4.37, 4.07, 3.48, 3.35, 3.35, 3.63, 4.43, 4.11, 3.22, 2.6, 2.35, 4.96, 5.72, 5.37, 5.21, 6.94, 9.54, 12.27, 13.39, 12.3, 10.68, 10.16, 12.52, 14.73, 12.07, 8.05, 6.47, 7.93, 8.72, 9.63, 9.63, 9.86, 9.34, 9.34, 9.74, 10.27, 11.47, 12.92, 13.74, 13.33, 12.25, 12.25, 6.68, 6.68, 6.26, 6.26, 6.26, 6.26, 5.81, 5.36, 5.36, 5.34, 5.81, 5.81, 5.81, 5.81, 5.81, 5.81, 5.81, 6.26, 6.26, 6.68, 6.68, 6.68, 6.68, 6.68, 6.23, 6.23, 6.26, 6.26, 7.15, 5.81, 5.81, 5.81, 5.81, 5.81, 5.81, 5.78, 5.78, 6.23, 6.68, 7.13, 7.07, 7.51, 7.51, 7.4, 7.4, 6.94, 6.94, 6.94, 6.3, 6.3, 5.81, 5.81, 5.31, 5.51, 4.9, 4.8, 4.55, 4.37, 3.48, 3.48, 4.11, 4.54, 4.54, 3.79, 4.11, 2.53, 1.66, 3.76, 6.7, 6.52, 4.19, 4.8, 6.23, 10.6, 14.84, 12.52, 7.55, 6.65, 8.9, 11.18, 10.96, 8.48, 7.47, 8.0, 9.39, 10.12, 10.12, 10.12, 10.68, 9.4, 9.4, 9.4, 10.1, 11.3, 13.07, 12.54, 11.6, 11.6, 6.23, 6.23, 6.26, 6.26, 6.26, 5.81, 5.36, 5.36, 5.36, 5.36, 5.81, 5.81, 5.81, 5.81, 5.81, 5.81, 6.26, 6.26, 6.68, 6.68, 6.23, 6.23, 6.23, 6.23, 6.23, 6.23, 5.81, 5.81, 5.81, 7.15, 5.36, 5.34, 5.34, 5.34, 5.34, 5.78, 5.78, 5.79, 6.23, 6.68, 7.06, 7.51, 7.51, 7.4, 7.4, 7.4, 6.94, 6.61, 6.6, 6.04, 5.81, 5.4, 5.09, 5.02, 5.02, 4.8, 4.8, 4.37, 4.0, 3.78, 3.78, 3.79, 4.43, 3.79, 4.54, 3.63, 2.95, 4.22, 6.23, 5.75, 3.35, 3.16, 4.57, 7.89, 14.92, 15.52, 9.54, 6.65, 8.05, 9.39, 9.58, 8.91, 8.63, 8.67, 8.77, 9.11, 9.11, 9.07, 9.49, 8.56, 8.14, 7.71, 8.19, 9.33, 9.86, 11.6, 10.94, 10.94, 6.23, 6.23, 5.79, 5.81, 5.81, 5.78, 5.34, 5.33, 5.36, 5.81, 5.81, 5.81, 5.81, 5.81, 5.81, 6.26, 6.26, 6.68, 6.68, 6.68, 6.6, 6.16, 6.16, 6.14, 5.78, 5.78, 5.81, 5.36, 5.81, 5.78, 5.78, 5.7, 5.26, 5.26, 5.7, 5.78, 5.78, 5.78, 6.23, 6.6, 6.61, 7.06, 7.07, 6.94, 7.37, 7.4, 6.94, 6.61, 6.16, 6.16, 5.99, 5.51, 5.02, 4.6, 4.6, 4.6, 4.8, 4.8, 4.0, 3.78, 5.01, 4.11, 4.11, 4.11, 3.35, 3.63, 4.43, 4.54, 5.2, 3.76, 3.0, 3.45, 4.65, 6.98, 12.37, 16.85, 14.17, 10.16, 8.94, 9.39, 9.39, 9.36, 8.82, 7.92, 7.45, 6.9, 6.72, 6.72, 7.21, 6.7, 6.7, 6.94, 6.79, 7.71, 8.48, 10.27, 10.4, 10.4, 6.23, 6.23, 5.78, 5.81, 5.36, 5.34, 5.33, 5.33, 5.36, 5.81, 5.81, 5.81, 6.26, 5.81, 6.26, 6.26, 6.71, 6.68, 6.68, 6.61, 6.16, 6.16, 5.7, 5.7, 5.78, 5.33, 4.92, 4.92, 5.36, 5.34, 5.78, 5.7, 5.7, 5.7, 5.7, 5.7, 5.7, 5.78, 5.78, 6.16, 6.6, 7.06, 7.06, 6.94, 6.94, 6.94, 6.94, 6.61, 6.16, 6.16, 5.99, 5.51, 4.6, 4.34, 4.3, 4.77, 4.6, 4.6, 4.4, 4.0, 3.43, 5.36, 5.01, 5.01, 3.76, 3.76, 4.54, 4.54, 3.35, 2.64, 2.9, 4.71, 7.07, 8.0, 11.37, 14.71, 15.59, 12.98, 10.25, 8.49, 7.6, 7.15, 6.71, 5.75, 4.66, 4.27, 4.66, 5.21, 5.6, 6.16, 6.7, 6.7, 6.94, 6.79, 7.76, 8.48, 9.34, 9.34, 6.23, 6.23, 5.78, 5.36, 5.36, 5.36, 5.36, 5.33, 5.36, 5.81, 5.81, 5.81, 6.26, 6.26, 6.26, 6.26, 6.71, 6.68, 6.68, 6.61, 6.16, 5.7, 5.7, 5.7, 5.33, 4.92, 4.47, 4.88, 4.89, 5.33, 5.78, 5.7, 5.24, 5.24, 5.24, 5.7, 5.7, 5.7, 5.7, 6.16, 6.16, 6.6, 6.61, 6.61, 6.61, 6.94, 6.94, 6.61, 6.16, 6.14, 5.7, 5.51, 4.6, 4.3, 4.43, 4.43, 4.34, 4.77, 4.6, 4.0, 4.0, 4.37, 5.36, 4.54, 4.54, 5.01, 4.6, 4.22, 2.95, 1.72, 3.4, 4.83, 7.64, 9.05, 10.23, 11.83, 14.46, 15.03, 12.98, 9.11, 5.77, 4.47, 3.47, 2.6, 2.84, 3.48, 4.19, 5.21, 5.82, 6.21, 6.7, 6.7, 6.94, 7.42, 7.45, 7.76, 8.67, 8.67, 6.16, 6.16, 5.79, 5.81, 5.36, 5.36, 4.92, 5.33, 5.36, 5.81, 5.81, 5.81, 5.81, 6.26, 6.26, 6.26, 6.71, 7.13, 7.13, 6.61, 6.16, 5.57, 5.57, 5.24, 4.88, 4.02, 4.02, 4.44, 4.8, 5.24, 5.24, 5.24, 5.24, 5.24, 5.24, 5.24, 5.26, 5.7, 5.7, 5.78, 6.23, 6.16, 6.6, 7.55, 6.16, 6.6, 6.6, 6.6, 6.23, 5.78, 5.7, 5.09, 4.6, 4.3, 3.98, 3.98, 4.43, 4.34, 3.88, 4.0, 4.37, 4.07, 5.36, 4.54, 5.21, 5.36, 4.6, 4.22, 2.3, 1.6, 3.33, 4.95, 6.64, 9.17, 10.01, 10.66, 12.39, 14.83, 14.58, 9.74, 3.84, 1.0, 1.0, 1.74, 2.3, 3.35, 4.11, 5.21, 5.82, 6.7, 6.7, 6.79, 7.42, 7.42, 7.42, 7.45, 7.71, 8.19, 6.16, 6.16, 6.23, 5.78, 5.36, 4.92, 4.89, 5.33, 5.36, 5.81, 5.81, 5.81, 5.81, 5.81, 6.26, 6.26, 6.71, 7.13, 7.13, 6.68, 6.6, 5.81, 5.31, 4.6, 3.82, 3.07, 3.13, 3.98, 4.6, 5.09, 5.51, 5.51, 5.51, 5.24, 5.24, 5.24, 5.24, 5.26, 5.7, 5.78, 6.23, 6.23, 6.23, 7.11, 6.16, 6.16, 6.16, 6.23, 5.78, 5.78, 5.33, 5.24, 4.6, 4.34, 3.98, 3.98, 4.43, 4.3, 4.27, 4.0, 4.37, 4.41, 5.59, 4.54, 5.21, 5.01, 4.65, 3.48, 1.83, 2.4, 3.11, 3.35, 4.88, 8.12, 10.18, 11.28, 12.7, 13.72, 12.18, 6.94, 1.74, -0.0, 1.74, 1.8, 2.3, 3.79, 4.84, 5.6, 5.75, 6.16, 6.51, 6.98, 7.42, 6.94, 6.94, 5.86, 5.86, 7.71, 6.16, 6.16, 6.23, 5.78, 5.34, 4.89, 4.89, 5.33, 5.36, 5.81, 5.81, 5.81, 5.81, 5.81, 6.26, 6.26, 6.71, 7.15, 7.13, 7.13, 6.61, 5.99, 4.9, 4.27, 3.14, 2.86, 2.68, 3.07, 3.72, 4.8, 5.31, 5.4, 5.57, 5.51, 5.24, 5.24, 5.24, 5.24, 5.78, 5.78, 5.78, 6.23, 6.23, 6.23, 7.55, 6.16, 6.16, 6.16, 5.78, 5.33, 5.33, 5.24, 4.6, 4.6, 4.3, 3.98, 4.3, 4.11, 4.27, 4.27, 4.37, 4.65, 4.55, 5.36, 5.01, 5.01, 3.48, 2.41, 1.66, 2.6, 2.51, 1.6, 3.45, 5.92, 9.22, 11.38, 13.51, 13.75, 10.43, 4.15, 1.2, 2.84, 3.84, 3.84, 3.16, 3.16, 4.22, 5.2, 5.75, 6.02, 6.51, 6.94, 6.51, 5.51, 4.6, 4.4, 3.74, 5.86, 6.23, 6.23, 6.23, 5.78, 5.34, 4.89, 4.89, 5.33, 5.36, 5.81, 5.81, 5.81, 5.81, 5.81, 6.26, 6.71, 6.71, 7.15, 7.13, 7.13, 7.07, 7.06, 5.57, 4.55, 4.07, 4.6, 4.11, 3.49, 3.79, 4.55, 5.31, 5.4, 5.57, 5.57, 5.09, 5.24, 5.24, 5.34, 5.78, 5.78, 5.78, 5.78, 5.78, 6.23, 6.23, 7.55, 6.16, 6.04, 6.16, 5.78, 5.33, 5.24, 4.6, 4.6, 4.11, 4.3, 4.3, 4.6, 4.6, 4.27, 4.27, 4.0, 5.36, 5.01, 5.01, 3.76, 2.68, 2.48, 2.4, 2.4, 1.6, 0.78, 2.58, 3.7, 5.69, 9.49, 13.67, 15.44, 12.87, 8.03, 6.06, 7.69, 8.24, 6.0, 3.83, 3.83, 4.8, 5.2, 5.75, 5.75, 5.2, 5.2, 3.93, 2.84, 2.21, 1.9, 2.4, 2.4, 6.23, 6.23, 6.23, 5.78, 5.34, 4.89, 4.89, 5.33, 5.36, 5.81, 5.81, 5.81, 5.81, 5.81, 6.26, 6.71, 7.15, 7.15, 7.13, 7.58, 7.51, 7.51, 6.94, 6.79, 6.79, 7.6, 7.31, 6.51, 5.21, 5.31, 5.09, 5.51, 5.57, 5.57, 5.51, 5.24, 5.24, 5.78, 5.78, 5.78, 5.78, 5.78, 5.78, 5.78, 6.23, 6.23, 6.6, 6.6, 6.6, 6.23, 5.81, 5.33, 4.77, 4.11, 4.11, 3.87, 4.3, 4.6, 4.6, 4.11, 4.11, 3.88, 3.78, 5.01, 3.76, 2.32, 2.32, 2.16, 2.26, 2.47, 0.85, 0.85, 1.2, 2.67, 3.6, 5.72, 10.75, 16.09, 16.73, 14.47, 11.44, 11.8, 12.01, 8.8, 5.34, 4.57, 4.8, 4.54, 4.19, 3.16, 2.23, 1.13, -0.0, -0.0, -0.0, -0.0, -0.0, -0.0, 6.23, 6.23, 6.23, 5.78, 5.24, 4.89, 4.89, 5.33, 5.36, 5.81, 5.36, 5.81, 5.81, 5.81, 6.26, 6.71, 7.15, 7.15, 7.6, 7.58, 7.51, 7.97, 7.97, 8.42, 8.92, 9.77, 8.79, 7.48, 6.28, 5.81, 5.57, 5.67, 5.67, 5.24, 5.24, 5.24, 5.7, 5.78, 5.78, 5.81, 5.81, 5.81, 5.78, 5.78, 5.79, 6.23, 6.23, 6.6, 6.61, 6.68, 6.26, 5.81, 4.89, 4.11, 3.6, 3.82, 4.3, 4.34, 4.34, 4.3, 3.82, 3.45, 2.86, 4.02, 2.49, 2.49, 2.66, 2.4, 2.44, 1.75, 0.84, -0.0, 0.83, 1.63, 2.47, 3.33, 7.97, 13.51, 16.11, 15.44, 13.35, 13.68, 14.24, 10.73, 5.09, 3.22, 2.84, 2.23, -0.0, -0.0, -0.99, -0.99, -1.4, -1.58, -1.58, -2.24, -2.24, -2.24, 6.23, 6.23, 5.78, 5.78, 5.24, 4.8, 5.33, 5.36, 5.36, 5.36, 5.36, 5.36, 5.81, 5.81, 6.26, 6.71, 7.15, 7.15, 7.6, 7.58, 7.58, 8.03, 8.47, 8.92, 8.94, 9.32, 8.64, 7.51, 6.79, 6.3, 6.04, 5.7, 5.7, 5.24, 5.24, 5.33, 5.78, 5.78, 5.78, 5.81, 5.81, 5.36, 5.81, 5.81, 5.81, 5.81, 6.23, 6.23, 6.68, 6.68, 6.26, 6.26, 5.33, 3.87, 3.6, 3.82, 3.87, 4.43, 4.44, 4.02, 3.51, 2.15, 1.76, 1.88, 2.66, 2.49, 2.32, 1.84, 1.65, 0.89, -0.0, -0.0, -0.0, 0.89, 1.84, 2.64, 6.73, 11.28, 13.89, 14.2, 14.15, 14.91, 15.14, 10.79, 4.65, -0.0, -0.85, -1.98, -3.35, -3.35, -4.0, -2.98, -3.39, -2.97, -3.13, -3.13, -3.13, -3.13, 5.78, 5.78, 5.78, 5.33, 5.24, 5.33, 5.36, 5.36, 5.36, 5.36, 5.36, 5.36, 5.81, 5.81, 6.26, 6.71, 6.71, 7.15, 7.6, 7.6, 8.05, 8.05, 8.05, 8.49, 8.49, 8.41, 7.84, 6.94, 6.47, 6.47, 6.47, 6.16, 5.7, 5.7, 5.34, 5.33, 5.34, 5.78, 5.78, 5.81, 5.81, 5.36, 5.36, 5.81, 5.81, 5.81, 6.26, 6.23, 6.23, 6.68, 6.26, 6.26, 5.36, 3.87, 3.07, 3.39, 3.98, 3.98, 4.47, 4.02, 2.5, 1.23, 1.19, 1.7, 1.88, 2.8, 2.6, 1.7, 0.96, -0.0, -0.88, -0.82, -0.0, 0.89, 2.64, 3.33, 6.11, 9.43, 11.28, 11.87, 13.18, 15.5, 15.43, 9.57, 1.47, -2.97, -4.38, -4.41, -4.82, -4.66, -4.24, -3.9, -3.9, -4.02, -4.02, -4.02, -4.02, -4.02, 5.78, 5.78, 5.34, 5.33, 5.33, 5.33, 5.36, 5.36, 5.36, 5.36, 5.36, 5.36, 5.81, 5.81, 6.26, 6.71, 6.71, 7.15, 7.15, 7.6, 8.05, 8.05, 8.05, 8.05, 8.03, 7.97, 7.4, 6.94, 6.61, 6.6, 6.61, 6.61, 6.16, 6.16, 5.78, 5.78, 5.78, 5.78, 5.78, 5.78, 5.81, 5.81, 5.36, 5.36, 5.81, 5.81, 5.81, 6.26, 6.23, 6.68, 6.26, 6.26, 5.81, 3.98, 3.07, 3.39, 3.98, 4.02, 4.47, 3.98, 2.23, 1.73, 1.73, 1.73, 1.88, 2.8, 2.6, 1.41, -0.0, -0.0, -0.96, -0.0, -0.0, 0.89, 2.64, 3.33, 4.95, 7.35, 9.66, 10.24, 11.87, 14.88, 15.5, 8.85, -0.0, -4.85, -5.31, -5.36, -5.36, -4.82, -4.34, -4.34, -4.38, -4.47, -4.47, -4.02, -4.02, -4.02, 5.78, 5.78, 5.33, 5.33, 5.33, 5.36, 5.36, 5.36, 5.36, 5.36, 5.36, 5.36, 5.81, 5.81, 6.26, 6.26, 6.71, 7.15, 7.15, 7.6, 7.6, 7.6, 7.6, 7.58, 7.58, 7.51, 7.51, 7.06, 6.61, 6.68, 6.68, 6.68, 6.23, 6.23, 6.23, 6.23, 5.78, 5.78, 5.81, 5.81, 5.81, 5.81, 5.36, 5.36, 5.81, 5.81, 5.81, 5.81, 6.23, 6.68, 6.26, 6.26, 6.26, 4.88, 3.07, 3.82, 3.98, 4.02, 4.47, 3.6, 3.15, 2.44, 1.76, 1.57, 1.73, 2.49, 2.8, -0.0, -0.0, 0.87, 0.87, -0.0, -0.0, 0.89, 1.84, 3.33, 4.42, 6.18, 7.9, 8.85, 10.58, 12.87, 14.42, 10.3, 0.73, -5.34, -5.59, -5.31, -4.92, -4.85, -4.57, -4.34, -4.34, -4.34, -4.47, -3.9, -3.9, -3.9, 5.34, 5.34, 5.36, 5.36, 5.36, 5.36, 5.36, 5.36, 5.36, 5.36, 5.36, 5.36, 5.81, 5.81, 6.26, 6.26, 6.71, 6.71, 7.15, 7.15, 7.6, 7.6, 7.6, 7.6, 7.58, 7.58, 7.07, 7.06, 6.68, 6.68, 6.68, 6.68, 6.23, 6.23, 5.78, 6.16, 6.16, 5.79, 5.81, 5.81, 5.81, 5.81, 5.81, 5.81, 5.81, 5.81, 5.81, 5.81, 6.26, 6.23, 6.71, 6.26, 6.26, 5.33, 3.6, 3.82, 3.98, 3.98, 4.43, 4.11, 3.48, 2.86, 1.76, 1.76, 1.73, 1.84, 1.84, 1.55, 0.88, 0.88, 0.88, -0.0, -0.0, -0.0, 1.72, 2.82, 3.4, 5.1, 6.42, 8.12, 9.17, 10.18, 11.38, 11.92, 6.01, -3.16, -3.58, -2.68, -2.68, -3.47, -4.15, -4.0, -3.9, -3.9, -3.9, -2.98, -2.98, -2.98, 5.36, 5.36, 5.36, 5.36, 5.36, 5.36, 5.36, 5.36, 5.36, 5.36, 5.36, 5.36, 5.81, 5.78, 6.23, 6.23, 6.68, 6.68, 7.13, 7.13, 7.15, 7.15, 7.15, 7.15, 7.15, 7.13, 7.13, 6.68, 6.68, 6.68, 6.71, 6.71, 6.26, 5.78, 5.78, 5.78, 6.23, 6.23, 5.81, 5.36, 5.36, 5.81, 5.81, 5.81, 5.81, 5.81, 5.81, 5.81, 6.26, 6.23, 6.71, 6.26, 6.26, 4.89, 4.34, 4.3, 4.3, 4.44, 4.34, 4.6, 4.0, 2.86, 1.8, 1.76, 1.08, 1.84, 1.84, 1.6, 0.82, 0.89, 0.82, -0.0, -0.0, -0.0, 0.89, 2.51, 3.4, 4.26, 5.49, 7.59, 8.22, 8.93, 9.17, 12.52, 12.45, -3.58, -2.4, 0.89, 1.34, 1.34, -2.97, -3.47, -3.04, -3.39, -3.39, -2.21, -2.21, -2.21, 5.36, 5.36, 5.36, 5.36, 5.36, 5.36, 5.36, 5.36, 5.36, 5.36, 5.36, 5.36, 5.78, 5.78, 6.23, 6.23, 6.68, 6.68, 6.68, 7.13, 7.15, 7.15, 7.15, 7.15, 7.15, 7.15, 6.71, 6.71, 6.71, 6.71, 6.71, 6.68, 6.23, 5.78, 5.36, 5.81, 6.26, 6.26, 5.81, 5.36, 5.36, 5.36, 5.81, 5.81, 5.81, 5.81, 5.81, 5.81, 5.81, 6.26, 6.26, 6.26, 6.26, 5.34, 4.89, 4.77, 4.44, 4.88, 4.8, 4.6, 3.88, 2.84, 1.84, 1.58, 1.23, 1.08, 0.88, 0.82, -0.0, -0.0, 0.89, 0.89, -0.0, -0.0, 0.82, 1.84, 3.2, 4.03, 4.83, 5.89, 7.27, 7.9, 9.0, 12.98, 5.86, -1.6, -0.85, -0.0, 0.89, 0.89, -2.24, -3.13, -3.58, -2.97, -2.21, -1.4, -1.4, -1.4, 5.36, 5.36, 5.36, 5.36, 5.36, 5.36, 5.36, 5.36, 5.36, 5.36, 5.34, 5.78, 5.78, 5.78, 6.23, 6.23, 6.68, 6.68, 6.68, 6.68, 6.68, 6.71, 6.71, 6.71, 6.71, 6.71, 6.71, 6.71, 6.71, 6.26, 6.26, 6.68, 6.68, 6.23, 5.81, 5.81, 5.81, 5.81, 5.81, 5.36, 5.36, 5.36, 5.36, 5.81, 5.81, 5.81, 5.81, 5.81, 5.81, 6.26, 6.26, 6.26, 6.26, 5.36, 5.33, 4.89, 4.88, 4.89, 5.33, 4.77, 4.11, 2.53, 1.84, 1.8, 1.23, 1.23, 0.88, -0.0, -0.0, -0.0, -0.0, -0.0, 0.83, -0.0, 0.82, 1.72, 2.51, 3.4, 4.42, 4.26, 5.76, 7.59, 9.66, 13.96, 4.11, -2.41, -2.21, -2.0, -2.24, -2.97, -3.95, -3.58, -3.58, -2.97, -2.21, -1.13, -1.13, -1.13, 5.36, 5.36, 5.36, 5.36, 5.36, 5.36, 5.36, 5.36, 5.36, 5.36, 5.34, 5.78, 5.78, 5.78, 6.23, 6.23, 6.68, 6.68, 6.68, 6.68, 6.68, 6.68, 6.71, 6.71, 6.71, 6.71, 6.71, 6.71, 6.26, 6.26, 6.26, 6.26, 6.23, 6.23, 6.26, 5.81, 5.81, 5.81, 5.81, 5.81, 5.36, 5.36, 5.36, 5.36, 5.81, 5.81, 5.81, 5.81, 5.81, 5.81, 6.26, 6.26, 5.81, 5.36, 5.33, 5.33, 4.89, 4.88, 4.89, 4.77, 3.82, 2.21, 1.84, 1.6, 1.27, 0.57, 0.63, -0.0, -0.0, -0.0, -0.0, -0.0, 0.89, 0.89, 0.89, 0.89, 1.73, 2.67, 3.4, 3.4, 4.26, 6.53, 13.83, 12.86, 1.8, -5.31, -4.66, -4.38, -4.92, -5.31, -5.31, -4.02, -3.58, -2.8, -1.13, -0.0, -0.0, -0.0, 5.36, 5.36, 5.36, 5.36, 5.36, 5.36, 5.36, 5.36, 5.36, 5.34, 5.78, 5.78, 5.78, 5.78, 6.23, 6.23, 6.68, 6.68, 6.68, 6.68, 6.68, 6.68, 6.68, 6.71, 6.71, 6.71, 6.71, 6.26, 6.26, 6.26, 5.81, 5.81, 6.26, 6.26, 6.26, 5.81, 5.81, 5.81, 5.81, 5.81, 5.36, 5.36, 5.36, 5.36, 5.36, 5.81, 5.81, 5.81, 5.81, 5.81, 5.81, 6.26, 5.81, 5.36, 5.36, 5.33, 4.89, 4.88, 4.88, 4.43, 3.39, 2.5, 1.88, 1.33, 1.13, 0.59, 0.57, -0.0, -0.0, -0.0, -0.0, -0.0, 0.82, 0.82, 0.96, -0.0, 0.83, 1.73, 2.51, 2.51, 3.2, 5.1, 11.28, 13.51, 5.15, -5.36, -5.75, -5.75, -5.81, -6.21, -5.75, -4.38, -3.13, -1.2, -0.0, 1.6, 1.6, 1.6, 5.36, 5.36, 5.36, 5.36, 5.36, 5.36, 5.36, 5.36, 5.34, 5.34, 5.78, 5.78, 5.78, 6.23, 6.16, 6.16, 6.6, 6.61, 6.61, 6.68, 6.68, 6.68, 6.68, 6.23, 6.26, 6.26, 6.26, 6.26, 6.26, 6.26, 5.81, 5.81, 5.81, 6.26, 6.26, 5.81, 5.81, 5.81, 5.81, 5.36, 5.36, 5.36, 5.36, 5.36, 5.36, 5.36, 5.36, 5.81, 5.81, 5.81, 5.81, 5.81, 5.81, 5.36, 5.36, 5.33, 4.89, 4.88, 4.44, 3.97, 2.91, 2.5, 1.88, 1.16, 1.16, 0.61, -0.0, -0.0, 0.57, 0.88, -0.0, -0.0, -0.0, 0.82, 0.96, -0.0, -0.0, -0.0, 0.82, 1.72, 2.8, 6.01, 9.05, 13.43, 11.5, 0.0, -6.71, -5.81, -5.75, -5.75, -5.29, -3.58, -1.26, 0.98, 1.72, 3.27, 3.27, 3.27, 5.36, 5.36, 5.36, 5.36, 5.36, 5.36, 5.36, 5.36, 5.33, 5.34, 5.78, 5.78, 5.78, 6.14, 6.16, 6.16, 6.6, 6.61, 6.61, 6.6, 6.68, 6.68, 6.68, 6.23, 6.26, 6.26, 6.26, 6.26, 6.26, 6.26, 5.81, 5.81, 5.81, 5.81, 5.81, 5.81, 5.81, 5.81, 5.36, 5.36, 5.36, 5.36, 5.36, 5.36, 5.36, 5.36, 5.36, 5.81, 5.81, 5.81, 5.81, 5.81, 5.81, 5.36, 5.36, 5.33, 4.89, 4.88, 4.43, 3.53, 2.91, 2.15, 1.88, 1.4, 0.65, 0.65, -0.0, -0.0, -0.0, -0.0, -0.0, -0.0, -0.0, -0.0, -0.0, -0.0, -0.96, -0.0, -0.0, 0.96, 3.22, 5.21, 7.76, 11.66, 15.31, 7.6, -3.84, -6.07, -5.09, -4.15, -2.97, -1.26, 1.49, 3.33, 4.12, 4.4, 4.4, 4.4, 5.34, 5.34, 5.33, 5.33, 5.36, 5.36, 5.36, 5.33, 5.34, 5.78, 5.78, 5.78, 5.7, 6.14, 6.16, 6.6, 6.6, 6.61, 6.6, 6.6, 6.6, 6.68, 6.68, 6.23, 6.23, 6.26, 5.81, 5.81, 5.81, 5.81, 5.81, 5.81, 5.81, 5.81, 5.81, 5.81, 5.81, 5.36, 5.36, 5.36, 5.36, 5.36, 5.36, 5.36, 5.36, 5.36, 5.36, 5.81, 5.81, 5.81, 5.81, 5.81, 5.36, 5.36, 5.36, 4.92, 4.89, 4.88, 4.43, 3.53, 2.91, 2.4, 1.9, 1.2, 0.71, -0.0, -0.0, -0.0, -0.0, -0.0, -0.0, -0.0, -0.0, -0.0, -0.0, -0.0, -0.88, -0.98, -0.0, 1.27, 3.16, 4.98, 7.85, 11.15, 15.63, 14.3, 5.15, -2.3, -2.53, -1.2, 1.34, 2.84, 3.79, 4.83, 4.92, 4.92, 4.92, 4.92, 5.78, 5.78, 5.33, 5.33, 5.33, 5.36, 5.36, 5.33, 5.34, 5.78, 5.78, 5.7, 5.7, 6.16, 6.16, 6.6, 6.6, 6.6, 6.6, 6.6, 6.6, 6.6, 6.68, 6.23, 6.23, 5.78, 5.78, 5.78, 5.78, 5.81, 5.81, 5.81, 5.81, 5.81, 5.81, 5.36, 5.36, 5.36, 5.36, 5.36, 5.36, 5.36, 5.36, 5.36, 5.36, 5.36, 5.36, 5.36, 5.81, 5.81, 5.81, 5.81, 5.36, 5.36, 4.92, 4.92, 4.89, 4.88, 4.43, 3.53, 3.07, 2.4, 1.9, 1.24, 1.26, -0.0, -0.0, -0.71, -0.0, -0.0, -0.0, -0.0, -0.0, -0.0, -0.0, -0.0, -0.0, -0.0, -0.0, 1.13, 3.35, 5.09, 7.55, 11.15, 15.2, 16.54, 12.41, 6.0, 4.15, 4.47, 5.09, 5.43, 5.94, 5.9, 5.76, 5.52, 5.52, 5.52, 5.78, 5.78, 5.34, 5.33, 5.33, 5.33, 5.33, 5.34, 5.34, 5.78, 5.7, 5.7, 5.7, 6.16, 6.16, 6.6, 6.6, 6.6, 6.6, 6.6, 6.6, 6.6, 6.23, 6.23, 6.23, 6.23, 5.78, 5.78, 5.78, 5.36, 5.36, 5.81, 5.81, 5.81, 5.36, 5.36, 5.36, 5.36, 5.36, 5.36, 5.36, 5.36, 5.36, 5.36, 5.36, 5.36, 5.36, 5.36, 5.81, 5.81, 5.81, 5.81, 5.36, 4.92, 4.92, 4.92, 4.92, 4.92, 4.02, 3.58, 2.63, 2.6, 1.86, 1.86, 1.6, -0.0, -0.0, -0.8, -0.0, -0.0, -0.0, -0.0, -0.0, -0.0, -0.0, -0.0, -0.0, -0.0, -0.0, 1.2, 3.35, 4.98, 7.55, 11.14, 15.12, 17.36, 14.73, 10.28, 8.49, 7.92, 7.89, 6.7, 6.24, 5.78, 5.78, 5.38, 5.38, 5.38, 5.78, 5.78, 5.34, 5.33, 5.33, 5.33, 5.33, 5.33, 5.34, 5.7, 5.7, 5.7, 5.7, 6.16, 6.16, 6.6, 6.6, 6.6, 6.6, 6.6, 6.6, 6.16, 6.23, 6.23, 6.23, 5.78, 5.78, 5.81, 5.36, 5.36, 5.36, 5.81, 5.36, 5.36, 5.36, 5.36, 5.36, 5.36, 5.36, 5.36, 5.36, 4.92, 4.92, 4.92, 5.36, 5.36, 5.36, 5.36, 5.36, 5.36, 5.81, 5.81, 5.36, 4.92, 4.92, 4.92, 4.92, 4.47, 4.02, 3.58, 2.68, 2.17, 2.12, 2.12, 1.6, 0.95, -0.0, -0.0, -0.0, -0.0, -0.0, -0.0, -0.0, -0.0, -0.0, -0.0, -0.0, -0.0, -0.0, -0.0, 2.21, 4.57, 6.51, 9.7, 14.11, 17.13, 15.61, 12.53, 9.97, 9.24, 8.43, 7.41, 5.94, 5.94, 5.49, 5.1, 5.1, 5.1, 5.78, 5.78, 5.34, 5.33, 5.33, 5.33, 5.33, 5.33, 5.34, 5.7, 5.7, 5.7, 5.7, 6.16, 6.16, 6.6, 6.6, 6.6, 6.6, 6.6, 6.6, 6.16, 6.23, 6.23, 6.23, 5.78, 5.78, 5.81, 5.36, 5.36, 5.36, 5.81, 5.36, 5.36, 5.36, 5.36, 5.36, 5.36, 5.36, 5.36, 5.36, 4.92, 4.92, 4.92, 5.36, 5.36, 5.36, 5.36, 5.36, 5.36, 5.81, 5.81, 5.36, 4.92, 4.92, 4.92, 4.92, 4.47, 4.02, 3.58, 2.68, 2.17, 2.12, 2.12, 1.6, 0.95, -0.0, -0.0, -0.0, -0.0, -0.0, -0.0, -0.0, -0.0, -0.0, -0.0, -0.0, -0.0, -0.0, -0.0, 2.21, 4.0, 6.45, 9.24, 12.74, 15.61, 16.03, 14.17, 11.5, 10.0, 8.67, 7.41, 5.89, 6.01, 5.24, 4.16, 4.16, 4.16]}, {"header": {"dx": 0.06612293990616946, "dy": 0.0552356325346848, "nx": 98, "ny": 59, "la1": 35.046912555036876, "la2": 31.78801023549047, "lo1": -121.43107172385933, "lo2": -114.95102361305473, "refTime": "2026041216", "parameterCategory": 1, "parameterNumber": 3}, "data": [-0.63, 0.0, 0.61, 1.07, 1.7, 2.16, 2.32, 2.8, 2.8, 2.8, 2.8, 2.32, 2.51, 2.64, 2.6, 2.3, 2.84, 3.16, 4.11, 4.11, 3.76, 4.02, 3.47, 3.33, 3.55, 3.4, 3.4, 3.4, 3.4, 2.82, 1.72, 0.88, -1.26, -1.9, -1.79, -1.9, -2.68, -3.79, -3.63, -3.79, -0.79, 2.2, 4.02, 5.69, 6.64, 6.64, 7.35, 8.03, 8.38, 8.38, 7.97, 8.31, 8.64, 8.6, 8.93, 8.42, 8.01, 7.51, 7.51, 6.56, 6.33, 6.31, 6.64, 6.44, 6.79, 6.64, 7.59, 7.08, 7.24, 7.12, 6.56, 5.72, 4.87, 4.25, 3.33, 1.2, 0.0, -0.0, -0.0, -0.99, -2.21, -2.21, -2.8, -1.58, -1.26, -1.34, 0.0, 2.68, 4.82, 6.45, 6.64, 6.26, 5.81, 5.29, 5.29, 4.82, 4.92, 5.36, 0.0, 0.0, 0.54, 1.16, 1.84, 2.32, 2.32, 3.0, 2.8, 2.8, 2.8, 3.4, 2.51, 2.47, 2.32, 2.98, 2.53, 3.48, 2.98, 2.95, 3.76, 3.76, 4.02, 4.56, 3.72, 3.33, 3.55, 3.55, 2.82, 2.64, 1.84, 2.6, 0.98, -2.24, -3.47, -3.58, -3.6, -3.93, -4.54, -3.48, 1.08, 5.72, 6.9, 6.18, 6.39, 7.06, 7.41, 7.41, 7.35, 8.03, 7.97, 8.31, 8.31, 7.9, 7.85, 7.73, 7.24, 7.24, 6.33, 6.33, 6.57, 6.64, 6.44, 6.82, 6.73, 7.27, 7.9, 8.12, 8.01, 7.38, 7.12, 5.93, 4.87, 4.0, 2.0, 0.0, -0.0, -0.0, -0.0, -0.99, -2.21, -2.21, -2.8, -1.58, -1.26, -1.34, 0.0, 2.68, 4.82, 6.45, 6.64, 6.26, 5.81, 5.29, 5.29, 4.82, 4.92, 5.36, 0.0, 0.54, 1.16, 1.7, 2.36, 2.32, 2.32, 2.29, 3.0, 2.32, 2.32, 2.8, 2.51, 2.64, 2.29, 2.53, 3.58, 3.16, 2.95, 3.22, 2.95, 3.22, 3.76, 4.75, 5.31, 4.16, 3.33, 3.33, 2.6, 1.7, 2.6, 4.58, 6.11, 4.02, -1.4, -4.02, -3.58, -4.82, -4.6, -0.98, 4.54, 6.07, 6.18, 6.18, 5.77, 6.11, 6.79, 6.73, 7.76, 7.68, 8.38, 7.97, 7.59, 7.48, 7.15, 6.45, 6.7, 6.33, 5.51, 5.63, 6.04, 6.11, 6.44, 7.15, 8.03, 9.0, 9.26, 9.17, 8.76, 7.9, 7.12, 5.72, 4.8, 3.55, 0.99, 0.0, -0.0, -0.0, -0.99, -1.98, -1.98, -1.13, -1.4, -1.2, -2.0, -2.24, 0.0, 4.0, 6.16, 6.21, 5.6, 4.98, 4.82, 4.47, 4.47, 4.02, 4.47, 4.82, 0.0, 0.59, 1.16, 1.84, 2.16, 2.32, 2.29, 2.29, 2.29, 2.32, 2.32, 2.32, 2.51, 2.35, 2.47, 3.22, 3.35, 2.95, 2.68, 2.53, 1.83, 1.55, 1.7, 2.6, 4.16, 5.59, 4.58, 3.91, 2.95, 2.95, 4.81, 6.82, 8.05, 7.9, 5.03, 3.22, 2.0, 0.0, -0.87, 3.79, 6.8, 6.8, 6.21, 5.49, 5.49, 5.82, 6.44, 6.73, 7.41, 7.02, 6.64, 6.53, 6.83, 6.7, 6.57, 6.57, 5.63, 5.86, 5.63, 5.64, 6.11, 6.21, 7.2, 8.42, 9.67, 10.29, 10.63, 10.18, 9.8, 8.73, 8.18, 7.12, 5.52, 2.53, 0.0, 0.0, -0.0, -0.0, -1.13, -1.13, -0.99, -1.13, -1.4, -2.4, -2.68, 0.0, 3.39, 5.21, 6.18, 5.58, 4.54, 4.6, 4.0, 4.02, 4.02, 4.02, 4.38, 4.82, 0.0, 0.58, 1.14, 1.67, 1.8, 2.14, 2.29, 2.29, 2.29, 1.65, 1.8, 1.67, 1.72, 1.98, 2.47, 2.8, 2.98, 2.53, 2.0, 1.66, 1.3, 1.7, 1.55, 2.6, 2.6, 5.03, 6.28, 5.72, 6.0, 5.2, 5.82, 6.6, 6.18, 6.11, 6.32, 6.98, 5.31, 4.14, 3.47, 6.21, 7.76, 6.82, 6.44, 6.18, 5.82, 6.18, 6.79, 6.73, 6.73, 6.73, 5.89, 6.18, 6.53, 6.42, 6.31, 6.0, 5.63, 5.63, 5.29, 4.95, 5.21, 6.8, 8.43, 10.04, 11.26, 11.28, 11.28, 11.25, 11.2, 10.43, 9.4, 8.18, 6.71, 3.63, -0.0, -0.0, -0.0, -0.0, -1.13, -0.85, -0.85, -0.0, -1.2, -2.24, 0.0, 3.58, 5.6, 5.82, 5.49, 5.21, 5.6, 4.98, 4.82, 4.47, 4.47, 4.92, 4.82, 4.57, 0.0, 0.58, 1.14, 1.23, 1.65, 1.76, 1.76, 1.76, 1.76, 1.12, 1.14, 1.7, 1.72, 1.84, 1.84, 1.84, 2.4, 1.99, 1.83, 0.88, 1.83, 2.53, 3.49, 3.76, 4.43, 5.72, 6.28, 6.9, 7.2, 7.6, 5.58, 3.79, 3.79, 4.43, 4.65, 5.37, 5.24, 4.26, 4.74, 6.02, 7.42, 8.63, 7.82, 7.44, 7.07, 7.44, 6.73, 6.39, 6.01, 6.01, 5.59, 5.89, 6.53, 6.42, 6.31, 6.0, 5.76, 5.29, 5.1, 4.81, 5.6, 7.76, 10.55, 12.04, 12.15, 12.27, 11.28, 11.28, 10.51, 9.7, 8.95, 7.38, 7.24, 4.26, 0.0, -0.0, -0.0, -1.13, -1.13, -1.2, -0.0, -0.0, -0.0, 1.9, 3.35, 4.89, 5.06, 5.49, 5.15, 5.21, 6.16, 5.73, 5.36, 5.26, 5.29, 5.36, 5.26, 4.57, 0.0, 0.58, 0.58, 1.23, 1.65, 1.76, 1.63, 1.18, 1.1, 1.12, 1.14, 1.7, 1.72, 1.7, 1.23, 1.05, 1.7, 1.05, 0.96, 0.88, 0.98, 0.98, 2.0, 2.76, 4.02, 5.36, 5.36, 6.52, 6.28, 5.49, 4.02, 3.58, 3.58, 4.19, 5.15, 5.43, 4.95, 5.59, 5.72, 5.36, 7.6, 7.94, 8.22, 8.63, 8.54, 7.41, 7.41, 6.73, 6.79, 7.21, 6.95, 6.64, 6.53, 6.04, 5.64, 5.52, 5.64, 4.83, 4.43, 4.6, 6.57, 9.75, 11.87, 12.8, 12.15, 11.88, 11.28, 10.24, 9.06, 7.79, 6.56, 5.0, 3.95, 3.45, 0.0, -0.0, -0.0, -0.99, -1.13, -0.0, 2.23, 3.16, 2.95, 3.22, 3.72, 4.16, 4.16, 4.58, 5.58, 5.21, 4.8, 4.47, 5.09, 5.6, 5.6, 5.36, 4.82, 4.0, 0.57, 0.57, 1.12, 1.65, 1.76, 1.63, 1.18, 1.18, 1.1, 1.12, 1.14, 1.7, 1.98, 1.7, 1.41, 0.81, 0.81, 0.88, 0.81, 0.0, 0.0, 0.0, -1.13, 0.0, 0.0, 1.7, 2.98, 4.43, 4.02, 4.02, 3.79, 5.64, 6.58, 6.13, 5.15, 4.01, 4.01, 4.16, 5.72, 6.26, 6.71, 6.71, 6.64, 7.2, 6.7, 8.15, 7.41, 7.76, 8.06, 7.81, 7.06, 6.64, 6.04, 5.76, 5.21, 5.21, 5.1, 4.54, 2.98, 4.0, 8.14, 11.36, 12.09, 12.3, 11.75, 11.28, 10.24, 8.01, 6.33, 4.93, 3.42, 1.62, 0.85, 0.89, 1.2, -1.0, -1.98, -1.98, -0.98, -0.0, 0.88, 3.35, 2.98, 2.47, 3.0, 3.2, 4.65, 5.49, 5.6, 5.29, 4.02, 3.47, 4.98, 5.21, 5.21, 5.29, 4.82, 4.0, 0.57, 1.12, 1.65, 1.76, 1.63, 1.73, 1.18, 1.18, 1.18, 1.12, 1.14, 1.19, 1.23, 1.84, 1.84, 1.99, 1.05, 0.81, 0.96, 0.0, 0.0, 0.0, -2.21, -2.53, -1.13, 0.0, 0.0, 1.55, 1.3, 2.6, 4.8, 5.64, 5.6, 4.74, 3.47, 2.4, 1.55, 3.48, 5.64, 5.81, 6.26, 6.58, 6.23, 6.23, 6.52, 7.03, 8.8, 9.48, 9.67, 9.04, 8.15, 6.64, 6.24, 5.76, 5.89, 6.01, 5.15, 3.39, 1.58, 5.09, 10.14, 11.84, 11.36, 11.37, 11.2, 10.28, 9.48, 7.12, 4.01, 1.56, 0.0, 0.0, -0.83, 0.0, 0.0, -0.0, -1.4, -1.98, -0.98, -0.0, -0.0, 1.66, 1.55, 1.55, 1.47, 2.29, 3.72, 5.21, 5.59, 4.92, 4.38, 3.6, 3.58, 4.19, 4.54, 4.98, 4.47, 3.35, 0.57, 1.12, 1.65, 1.76, 1.73, 1.61, 1.71, 1.61, 1.73, 1.2, 1.14, 1.19, 1.19, 1.16, 1.72, 1.84, 0.96, 0.88, 1.3, 0.0, 0.0, 0.0, 0.0, -1.9, -1.8, 0.0, 0.0, 0.0, 1.41, 3.49, 3.79, 4.09, 3.48, 1.55, 1.3, 1.3, 1.6, 3.58, 5.81, 6.26, 5.29, 5.51, 5.2, 4.54, 5.43, 7.35, 8.0, 8.06, 8.65, 8.65, 8.38, 8.38, 7.68, 7.41, 7.44, 6.44, 5.6, 2.4, 2.4, 7.55, 11.51, 12.41, 12.58, 11.87, 10.87, 10.28, 9.17, 6.36, 4.5, 0.83, -0.88, -2.53, -1.8, -1.26, 0.0, -0.0, -0.0, -0.0, -0.0, -0.0, -0.0, -1.26, -0.0, -0.0, -0.0, 1.0, 3.47, 5.31, 6.21, 5.81, 4.85, 4.15, 3.35, 3.35, 3.93, 4.0, 4.02, 2.53, 0.58, 1.23, 1.65, 1.63, 1.73, 1.71, 1.71, 1.61, 1.73, 1.63, 1.23, 0.59, 0.54, 0.54, 0.89, 0.89, 0.89, 0.59, 0.53, 0.59, 0.0, 0.0, 0.0, 0.0, 0.0, 0.0, 0.0, 0.0, 2.0, 2.6, 2.6, 2.23, 1.2, 0.0, 0.0, 1.41, 4.66, 5.36, 4.92, 5.09, 5.51, 5.2, 5.2, 5.6, 6.23, 7.21, 7.42, 7.44, 7.41, 7.76, 10.04, 10.87, 10.63, 11.37, 10.43, 10.43, 8.82, 4.98, 5.29, 10.25, 12.49, 12.86, 12.27, 12.37, 12.7, 12.27, 11.66, 10.28, 8.95, 4.82, -1.26, -3.58, -2.68, -1.0, -0.0, -0.0, 1.2, 1.13, 1.13, -0.0, -0.0, 0.0, 0.0, -1.26, -1.2, 0.0, 2.41, 5.75, 6.55, 6.55, 5.81, 4.92, 3.58, 2.4, 2.53, 3.39, 2.97, 2.21, 0.58, 1.23, 1.12, 1.63, 1.73, 1.71, 1.71, 1.71, 1.73, 1.18, 1.12, 0.53, 0.54, 0.59, 0.59, 0.58, 0.58, 0.53, 0.57, 0.0, 0.0, 0.0, 0.0, 0.0, 0.0, 0.0, 0.0, 0.61, 1.08, 1.41, 1.41, 2.23, 1.2, 0.0, -0.99, 0.85, 3.04, 3.13, 3.58, 4.57, 5.2, 5.2, 5.2, 6.14, 6.58, 6.94, 8.48, 8.63, 9.04, 9.21, 10.95, 12.56, 13.72, 15.01, 14.55, 13.96, 13.49, 9.66, 8.49, 12.07, 13.86, 13.32, 12.86, 13.01, 14.64, 16.33, 17.25, 17.13, 15.78, 12.74, 5.36, -1.6, -3.48, -0.98, -0.98, -0.0, -0.0, -0.0, 1.0, 1.79, 2.4, 2.48, 2.6, 0.0, 0.0, 1.45, 3.11, 5.75, 6.0, 6.0, 5.34, 4.38, 2.97, 2.68, 2.68, 3.13, 2.8, 1.4, 0.58, 1.12, 1.2, 1.73, 1.61, 1.71, 1.16, 1.16, 1.09, 1.18, 1.2, 1.14, 1.16, 1.16, 0.53, 0.58, 0.58, 0.57, 0.0, 0.0, 0.0, -0.56, -0.57, -0.58, -0.53, 0.0, 0.0, 0.0, 0.0, 0.55, 0.88, 0.88, 0.0, -0.87, -0.85, 0.0, 1.34, 2.24, 3.13, 4.57, 5.2, 5.75, 5.59, 5.81, 6.71, 7.6, 7.97, 8.17, 8.6, 9.11, 9.58, 10.49, 12.05, 13.41, 14.26, 14.58, 14.6, 13.34, 9.36, 11.51, 13.86, 13.32, 12.86, 13.39, 16.07, 17.81, 19.1, 19.6, 18.62, 17.64, 14.46, 6.44, -2.53, -3.22, -2.0, -2.0, -1.4, 0.0, 1.58, 1.98, 2.3, 3.33, 4.46, 5.21, 4.96, 5.76, 5.1, 4.92, 4.11, 4.46, 4.19, 4.22, 3.58, 3.16, 3.35, 2.53, 2.21, 2.53, 0.58, 1.12, 1.2, 1.73, 1.61, 1.16, 1.16, 1.16, 1.16, 1.09, 1.2, 1.14, 1.16, 1.16, 1.14, 1.14, 1.14, 0.57, 0.56, 0.0, 0.0, -0.56, -0.56, -1.2, -1.12, -1.12, -0.57, -0.57, -0.58, 0.0, 0.0, 0.0, -1.41, -0.88, 0.0, 0.0, 2.0, 3.58, 4.02, 4.57, 4.98, 5.09, 6.14, 6.26, 6.26, 6.71, 6.26, 7.06, 7.97, 8.41, 8.85, 8.94, 9.39, 9.39, 9.83, 9.28, 10.62, 12.45, 11.99, 9.97, 11.84, 13.41, 14.3, 14.3, 14.3, 14.3, 14.75, 14.3, 14.14, 12.7, 13.15, 11.38, 3.45, -3.58, -4.19, -2.21, 2.8, 5.15, 5.89, 5.21, 4.34, 4.0, 4.5, 4.37, 5.78, 5.86, 5.76, 4.38, 2.68, 2.2, 2.98, 3.72, 3.22, 3.63, 2.3, 2.23, 1.98, 2.23, 1.14, 1.12, 1.2, 1.18, 1.09, 1.16, 1.16, 1.16, 1.16, 0.55, 0.56, 1.14, 1.16, 1.16, 1.26, 1.14, 1.14, 1.12, 0.56, 0.0, 0.0, 0.0, -0.59, -1.18, -1.63, -1.63, -1.63, -1.73, -1.1, -1.2, -1.12, -1.8, -2.4, -1.32, 0.0, 1.41, 4.8, 4.38, 4.66, 3.6, 4.0, 5.2, 5.2, 5.2, 5.36, 5.81, 5.81, 5.81, 6.71, 7.15, 7.5, 7.6, 7.15, 6.71, 6.26, 7.06, 7.2, 9.52, 11.3, 10.22, 9.49, 10.47, 11.12, 11.62, 12.07, 12.52, 12.96, 11.57, 9.21, 7.9, 7.27, 7.38, 5.67, 0.89, 0.0, 3.93, 8.06, 9.56, 9.7, 8.84, 7.01, 5.51, 4.4, 3.0, 1.8, 2.69, 3.55, 3.82, 1.9, 1.8, 2.6, 2.47, 2.2, 2.29, 2.53, 2.23, 2.23, 2.23, 1.23, 1.12, 1.2, 1.18, 1.16, 1.16, 1.16, 1.16, 0.58, 0.55, 0.56, 1.14, 1.16, 1.16, 1.16, 1.26, 1.14, 1.2, 0.56, 0.0, 0.0, 0.0, 0.0, -0.55, -1.09, -1.18, -1.73, -1.73, -1.73, -1.73, -1.73, -2.23, -1.71, -1.2, 0.0, 2.29, 4.29, 4.19, 3.72, 3.82, 3.9, 4.38, 5.09, 5.2, 5.36, 5.36, 5.81, 5.36, 5.36, 5.81, 6.26, 6.26, 6.26, 5.81, 5.36, 5.81, 6.58, 8.17, 10.04, 8.94, 7.42, 6.7, 6.8, 7.74, 7.97, 8.94, 8.94, 9.97, 9.86, 7.9, 4.12, 2.39, 4.06, 5.6, 7.24, 9.8, 11.47, 10.98, 10.43, 9.54, 8.61, 7.69, 5.9, 2.98, -0.0, -0.0, 1.4, 2.68, 2.68, 3.39, 2.68, 1.6, 1.6, 1.55, 1.6, 1.98, 1.98, 1.98, 1.12, 1.12, 1.1, 1.18, 1.16, 1.16, 0.58, 0.58, 0.58, 0.55, 0.61, 1.14, 1.16, 1.16, 1.16, 1.16, 1.14, 0.61, 0.56, 0.0, 0.0, 0.0, 0.0, 0.0, -0.58, -0.58, -1.16, -1.71, -1.71, -2.37, -2.37, -2.33, -2.3, -1.14, 0.0, 1.49, 3.4, 3.76, 3.72, 4.77, 5.2, 4.82, 5.64, 4.82, 5.36, 5.36, 5.36, 5.36, 4.92, 4.47, 4.47, 4.47, 4.66, 5.2, 5.36, 5.81, 5.81, 5.2, 5.7, 6.58, 6.26, 5.2, 4.11, 4.46, 5.2, 5.75, 7.15, 7.5, 9.1, 8.23, 3.68, 1.52, 4.13, 7.13, 10.15, 11.59, 11.19, 10.59, 9.42, 9.54, 9.12, 8.61, 6.7, 2.53, -1.13, -1.2, -0.0, 3.58, 4.47, 4.47, 2.98, 1.8, 2.3, 1.8, 1.13, 0.99, 1.74, 1.74, 1.12, 1.12, 1.1, 1.18, 1.16, 0.58, 0.58, 0.58, 0.58, 0.59, 0.57, 0.58, 1.16, 1.16, 1.16, 1.16, 0.58, 0.57, 0.56, 0.59, 0.0, 0.0, 0.0, 0.0, 0.0, -0.58, -1.16, -1.71, -1.71, -2.37, -2.21, -2.33, -2.3, -1.73, -0.56, 0.0, 2.31, 3.91, 5.01, 5.64, 5.64, 5.64, 5.2, 5.2, 5.36, 5.36, 4.92, 4.47, 4.47, 4.47, 3.58, 3.58, 3.2, 4.24, 4.66, 4.66, 4.24, 4.24, 4.24, 4.09, 4.77, 5.36, 4.24, 4.0, 4.66, 4.82, 4.92, 4.47, 4.43, 4.72, 4.74, 3.39, 4.01, 6.52, 7.71, 8.06, 7.93, 7.82, 8.03, 7.32, 7.23, 7.36, 6.43, -1.0, -2.24, 0.0, 1.4, 3.39, 4.57, 5.6, 5.21, 4.0, 2.68, 2.68, 2.4, 1.9, 2.0, 2.0, 1.12, 1.2, 1.1, 0.55, 0.58, 0.58, 0.58, 0.58, 0.55, 0.56, 0.57, 0.58, 1.16, 1.16, 1.16, 0.89, 0.58, 0.57, 0.61, 0.59, 0.0, 0.0, 0.0, 0.0, 0.0, 0.0, -1.14, -1.65, -1.65, -1.76, -1.73, -1.71, -1.78, -1.75, -1.16, 0.0, 0.61, 1.84, 3.33, 4.11, 3.93, 4.4, 4.66, 4.66, 5.09, 4.66, 4.02, 4.02, 4.47, 4.24, 4.24, 4.24, 4.24, 4.66, 5.2, 4.66, 4.24, 4.46, 4.84, 4.46, 4.66, 4.24, 4.47, 4.02, 4.92, 5.36, 4.92, 2.4, 0.0, 0.0, 1.11, 2.41, 2.37, 2.41, 1.58, 1.57, 0.81, 1.66, 3.17, 4.13, 4.1, 3.23, 2.41, 0.71, 0.0, 0.88, 2.76, 3.72, 4.6, 5.43, 5.77, 5.37, 3.63, 3.22, 2.84, 2.21, 2.4, 2.4, 1.12, 1.2, 0.59, 0.55, 0.58, 0.58, 0.58, 0.0, 0.0, 0.56, 0.58, 0.53, 1.16, 1.16, 1.16, 1.14, 0.58, 0.58, 0.84, 0.84, 0.0, 0.0, 0.0, 0.0, 0.0, 0.0, 0.0, 0.0, 0.0, -0.57, -0.56, -0.59, -0.58, -0.57, -0.56, -0.56, 0.0, 0.0, 1.1, 1.19, 1.84, 1.88, 1.61, 1.9, 2.4, 4.0, 3.6, 3.6, 3.6, 4.24, 4.24, 4.66, 4.66, 5.2, 4.57, 4.6, 5.2, 3.84, 3.48, 2.73, 3.16, 3.6, 4.02, 5.36, 5.81, 5.36, 4.82, 1.8, 0.0, -1.65, -0.78, 0.0, 0.0, -2.43, -4.07, -4.87, -4.65, -4.06, 0.0, 0.83, 1.65, 1.6, 1.58, 1.68, 1.67, 2.26, 3.0, 3.2, 3.72, 3.72, 4.29, 5.37, 4.74, 4.54, 3.79, 3.79, 2.95, 2.95, 1.12, 1.1, 0.59, 0.55, 0.58, 0.0, 0.0, 0.0, 0.0, 0.0, 0.58, 0.53, 1.16, 1.16, 1.16, 0.58, 0.58, 0.57, 0.57, 0.0, 0.0, 0.57, 0.0, 0.0, 0.0, 0.0, 0.0, 0.0, 0.0, 0.0, 0.0, 0.0, 0.0, 0.0, 0.0, 0.0, 0.0, 0.0, 0.0, 1.18, 1.19, 1.13, 1.4, 1.49, 2.23, 4.24, 4.24, 3.6, 3.6, 4.0, 4.24, 4.66, 5.09, 5.2, 5.2, 4.6, 4.54, 4.11, 3.22, 3.16, 1.8, 2.53, 4.24, 5.81, 5.36, 5.36, 4.38, 3.48, 2.47, 1.63, 2.44, 3.19, 1.61, -3.14, -6.43, -7.38, -7.44, -6.57, -4.13, -1.63, 0.0, 1.6, 2.53, 2.15, 2.47, 2.44, 2.54, 2.99, 2.99, 2.2, 3.47, 4.74, 5.58, 4.8, 3.84, 3.35, 2.98, 2.98, 1.2, 0.56, 0.55, 0.58, 0.0, 0.0, 0.0, 0.0, 0.0, 0.0, 0.58, 0.53, 0.59, 1.16, 0.59, 0.58, 0.58, 0.0, 0.0, 0.0, 0.55, 0.55, 0.55, 0.0, 0.0, 0.0, 0.0, 0.0, 0.0, 0.0, 0.0, 0.0, 0.0, 0.0, 0.0, 0.0, 0.56, 0.56, 0.59, 1.16, 1.69, 1.65, 1.73, 1.61, 2.8, 2.91, 4.09, 4.0, 4.0, 4.24, 4.24, 4.66, 5.09, 5.2, 4.8, 5.2, 5.21, 5.49, 4.11, 2.84, 2.21, 2.53, 4.66, 5.81, 5.81, 5.36, 4.82, 4.6, 6.44, 8.54, 10.16, 12.22, 10.12, 2.6, -5.51, -6.44, -7.31, -7.96, -6.58, -4.5, -1.62, 0.76, 2.53, 4.21, 4.17, 4.25, 4.0, 4.0, 4.6, 3.2, 3.72, 5.43, 5.75, 4.8, 3.83, 3.48, 2.99, 2.99, 0.56, 0.56, 0.56, 0.58, 0.0, 0.0, 0.0, 0.0, 0.0, 0.0, 0.58, 0.53, 0.59, 1.16, 0.53, 0.58, 0.58, 0.0, 0.0, 0.0, 0.0, 0.0, 0.0, 0.0, 0.0, 0.0, 0.0, 0.0, 0.0, 0.0, 0.0, 0.0, 0.0, 0.0, 0.57, 0.56, 0.59, 0.56, 0.59, 1.15, 1.15, 1.73, 1.69, 2.29, 3.15, 3.72, 4.09, 4.09, 4.09, 4.09, 4.46, 4.46, 4.09, 4.66, 4.46, 4.8, 5.21, 6.18, 5.72, 2.21, 2.4, 4.57, 6.51, 6.65, 6.2, 6.02, 5.51, 5.2, 7.35, 9.06, 11.03, 11.6, 7.25, 4.09, -0.0, -3.95, -5.82, -7.07, -7.32, -6.01, -3.6, -0.81, 0.85, 3.19, 4.93, 5.86, 5.29, 5.21, 6.04, 5.76, 4.43, 4.46, 4.84, 4.22, 3.22, 3.16, 2.68, 2.68, 0.56, 0.56, 0.56, 0.55, 0.0, 0.0, 0.0, 0.0, 0.0, 0.0, 0.58, 0.53, 0.59, 1.16, 0.58, 0.58, 0.58, 0.57, 0.0, 0.0, 0.0, 0.0, 0.0, 0.0, 0.0, 0.0, 0.0, 0.0, 0.0, 0.0, 0.0, 0.0, 0.54, 0.54, 0.57, 0.57, 0.56, 1.18, 1.11, 1.16, 1.15, 1.71, 1.71, 2.39, 3.56, 4.74, 5.75, 5.36, 5.01, 5.01, 4.43, 4.11, 4.46, 4.09, 4.09, 4.46, 4.22, 5.82, 5.93, 4.46, 3.39, 5.51, 7.12, 6.7, 6.02, 6.45, 7.12, 7.2, 6.8, 6.7, 5.82, 5.6, 8.74, 9.8, 6.97, 0.0, -5.6, -7.21, -7.2, -6.44, -5.37, -3.09, -0.77, 0.72, 2.49, 4.25, 4.83, 4.96, 6.18, 6.83, 5.24, 3.64, 2.98, 2.53, 2.21, 2.6, 2.98, 2.98, 0.56, 0.56, 0.0, 0.0, 0.0, 0.0, 0.0, 0.0, 0.0, 0.0, 0.58, 0.53, 0.59, 0.53, 0.58, 0.58, 0.58, 0.57, 0.57, 0.0, 0.0, 0.0, 0.0, 0.0, 0.0, 0.0, 0.0, 0.0, 0.0, 0.0, 0.0, 0.0, 0.0, 0.0, 0.58, 0.54, 0.57, 0.61, 1.12, 1.18, 1.18, 1.73, 1.71, 1.71, 2.93, 4.03, 5.37, 4.74, 4.12, 3.49, 3.12, 3.76, 3.79, 4.09, 4.09, 4.09, 4.09, 4.6, 6.13, 6.13, 5.81, 5.75, 6.16, 6.16, 6.02, 6.94, 7.35, 7.2, 6.8, 4.54, 4.16, 4.83, 9.22, 12.87, 12.96, 7.79, -1.66, -5.75, -6.58, -6.16, -5.82, -4.65, -2.26, -0.71, 0.89, 2.54, 3.4, 4.42, 6.01, 6.64, 8.12, 4.37, 2.2, 0.87, 0.0, 1.58, 2.4, 2.4, 0.0, 0.0, 0.0, 0.0, 0.0, 0.0, 0.0, 0.0, 0.0, 0.0, 0.53, 0.59, 0.59, 0.58, 0.58, 0.58, 0.58, 0.57, 0.57, 0.0, 0.0, 0.0, 0.0, 0.0, 0.0, 0.0, 0.0, 0.0, 0.0, 0.0, 0.0, 0.0, 0.0, 0.0, 0.0, 0.58, 0.58, 0.54, 1.14, 1.2, 1.67, 1.75, 1.75, 1.73, 2.28, 3.52, 4.05, 4.47, 4.12, 3.22, 2.84, 2.86, 4.11, 4.11, 3.79, 3.79, 4.09, 4.77, 5.4, 6.8, 7.2, 6.9, 5.21, 5.75, 6.51, 7.21, 7.35, 6.8, 5.2, 4.6, 4.43, 6.32, 7.27, 10.12, 12.87, 13.07, 4.56, -5.29, -5.36, -5.51, -5.2, -4.11, -2.4, 0.0, 0.76, 2.8, 3.72, 5.06, 5.69, 6.68, 8.6, 7.36, 4.5, 1.47, 0.0, 1.13, 1.98, 1.98, 0.0, 0.0, 0.0, 0.0, 0.0, 0.0, 0.0, 0.0, 0.0, 0.58, 0.53, 0.53, 0.53, 0.58, 0.58, 0.58, 0.58, 0.57, 0.0, 0.0, 0.0, 0.0, 0.0, 0.0, 0.0, 0.0, 0.0, 0.0, 0.0, 0.0, 0.0, 0.0, 0.0, 0.0, 0.0, 0.0, 0.55, 0.58, 0.58, 1.16, 1.14, 1.14, 1.78, 2.3, 2.3, 2.33, 3.4, 3.42, 3.45, 3.04, 3.08, 2.4, 2.44, 2.86, 3.35, 3.79, 4.11, 4.09, 4.15, 5.2, 5.93, 5.06, 5.37, 6.16, 7.74, 6.7, 6.4, 5.09, 5.09, 5.2, 4.43, 4.16, 5.59, 7.18, 8.95, 10.73, 6.56, -3.6, -4.54, -4.47, -4.34, -3.39, -1.9, 0.0, 1.74, 2.68, 4.43, 5.37, 6.01, 7.06, 7.27, 8.01, 8.05, 4.92, 2.9, 2.35, 3.0, 3.0, 0.0, 0.0, 0.0, 0.0, 0.0, 0.0, 0.0, 0.0, 0.0, 0.58, 0.53, 0.53, 0.58, 0.58, 0.58, 0.58, 0.58, 0.0, 0.0, 0.0, 0.0, 0.0, 0.0, 0.0, -0.58, -0.58, -0.58, -0.55, 0.0, 0.0, 0.0, 0.0, 0.0, 0.0, 0.0, 0.0, 0.55, 0.55, 0.58, 0.58, 1.16, 1.14, 1.69, 1.69, 1.71, 1.73, 1.76, 2.96, 3.0, 3.04, 2.36, 2.4, 2.44, 2.48, 2.48, 3.35, 4.11, 4.46, 4.57, 4.8, 4.81, 5.06, 5.82, 6.8, 6.8, 6.52, 5.2, 4.57, 4.22, 4.43, 4.16, 3.4, 2.64, 2.51, 3.49, 2.41, 3.13, -0.96, -4.54, -4.22, -3.39, -2.0, 0.0, 1.34, 2.0, 2.6, 3.84, 5.37, 6.73, 6.95, 7.59, 7.24, 8.86, 7.77, 5.68, 4.6, 4.2, 4.2, 0.0, 0.0, 0.0, 0.0, 0.0, 0.0, 0.0, 0.0, 0.0, 0.0, 0.53, 0.58, 0.58, 0.58, 0.58, 0.0, 0.0, 0.0, 0.0, 0.0, 0.0, 0.0, -0.55, -0.55, -0.55, 0.0, 0.0, 0.0, 0.0, 0.0, 0.0, 0.0, 0.0, 0.0, 0.0, 0.0, 0.0, 0.59, 0.55, 0.58, 1.16, 1.16, 1.16, 1.67, 2.31, 1.76, 1.12, 1.67, 2.36, 2.82, 2.4, 2.4, 2.2, 1.94, 1.76, 2.22, 3.76, 4.65, 4.6, 4.98, 4.43, 5.15, 6.21, 6.6, 6.18, 6.21, 6.6, 4.43, 2.76, 3.33, 3.91, 3.45, 1.65, -0.89, -2.39, -3.17, -0.78, 0.77, -0.8, -3.9, -3.9, -2.0, 0.0, 1.58, 1.98, 1.8, 3.07, 4.16, 5.89, 6.83, 6.98, 6.7, 6.57, 7.84, 7.38, 5.8, 5.0, 5.0, 0.0, 0.0, 0.0, 0.0, 0.0, 0.0, 0.0, 0.0, 0.0, 0.0, 0.53, 0.58, 0.58, 0.0, 0.0, 0.0, 0.0, 0.0, 0.0, 0.0, 0.0, -0.56, -0.56, -0.56, 0.0, 0.0, 0.0, 0.0, 0.0, 0.0, 0.0, 0.0, 0.0, 0.0, 0.0, 0.0, 0.0, 0.56, 0.59, 0.58, 1.16, 1.16, 1.16, 1.71, 2.23, 2.31, 1.73, 1.7, 2.36, 2.82, 2.82, 2.36, 2.4, 1.88, 1.73, 2.2, 2.86, 3.79, 4.54, 4.19, 4.54, 4.81, 5.58, 5.15, 5.82, 6.7, 7.42, 7.56, 4.29, 3.22, 3.4, 4.0, 2.49, 0.0, -3.91, -5.55, -3.17, 0.0, 1.54, 0.0, -2.67, -1.33, 0.7, 2.4, 2.49, 3.09, 3.09, 3.8, 4.5, 5.18, 5.95, 5.72, 6.0, 7.32, 7.29, 7.16, 6.36, 6.36, 0.0, 0.0, 0.0, 0.0, 0.0, 0.0, 0.0, 0.0, 0.0, 0.53, 0.53, 0.0, 0.0, 0.0, 0.0, 0.0, 0.0, 0.0, 0.0, 0.0, -0.56, -0.56, -0.56, -0.56, -0.56, 0.0, 0.0, 0.0, 0.0, 0.0, 0.0, 0.0, 0.0, 0.0, 0.0, 0.0, 0.0, 0.61, 0.56, 0.55, 1.16, 1.16, 1.16, 1.71, 1.73, 1.58, 2.4, 2.32, 2.8, 2.8, 2.8, 2.54, 2.36, 1.84, 2.18, 2.4, 3.12, 3.49, 3.48, 4.19, 4.19, 4.54, 4.43, 4.11, 4.84, 5.2, 6.28, 7.44, 6.87, 5.37, 3.47, 3.09, 2.39, 2.45, -0.79, -4.1, -3.29, -1.56, 0.0, 0.78, 0.0, 0.0, 1.76, 3.05, 3.49, 3.61, 3.61, 4.23, 4.31, 4.31, 4.5, 4.4, 5.02, 5.02, 6.51, 6.32, 6.48, 6.48, 0.56, 0.56, 0.0, 0.0, 0.0, 0.0, 0.0, 0.0, 0.0, 0.53, 0.0, 0.0, 0.0, 0.0, 0.0, 0.0, 0.0, 0.0, 0.0, -0.61, -0.61, -0.61, -0.61, -0.61, -0.57, -0.57, 0.0, 0.0, 0.0, 0.0, 0.0, 0.0, 0.0, 0.0, 0.0, 0.58, 0.58, 0.57, 0.61, 0.59, 1.09, 1.16, 1.16, 1.71, 1.71, 1.73, 1.73, 1.73, 2.29, 2.29, 2.32, 2.32, 2.36, 1.84, 2.18, 2.4, 2.84, 3.12, 3.48, 3.48, 4.11, 3.63, 3.63, 3.79, 4.11, 4.22, 4.15, 5.01, 4.46, 3.91, 3.35, 2.4, 2.49, 3.53, 3.3, 0.0, -0.84, -0.83, -0.81, 0.0, 2.19, 2.83, 2.99, 2.86, 2.93, 3.57, 3.57, 3.57, 3.29, 2.89, 2.89, 2.89, 3.61, 4.24, 5.81, 5.9, 5.8, 5.8, 0.57, 0.57, 0.0, 0.0, 0.0, 0.0, 0.0, 0.0, 0.0, 0.0, 0.0, 0.0, 0.0, 0.0, 0.0, 0.0, 0.0, 0.0, -0.61, -0.61, -0.57, -0.57, -0.57, -0.57, -0.57, -0.57, 0.0, 0.0, 0.0, 0.0, 0.0, 0.53, 0.53, 0.53, 0.53, 0.58, 0.58, 0.53, 0.57, 0.56, 1.18, 1.16, 1.16, 1.71, 1.71, 1.71, 1.73, 1.1, 1.2, 1.65, 2.32, 2.16, 1.7, 1.88, 1.88, 2.4, 2.4, 3.12, 2.86, 3.15, 3.15, 3.79, 4.43, 3.79, 3.63, 4.54, 3.93, 2.53, 2.49, 3.45, 4.19, 3.16, 1.83, 1.58, 4.71, 5.72, 2.39, 0.83, 0.0, 0.0, 2.21, 2.97, 2.35, 2.17, 1.75, 2.28, 2.28, 2.42, 2.59, 2.57, 2.44, 2.31, 2.23, 3.11, 4.23, 5.8, 5.1, 5.1, 0.57, 0.57, 0.53, 0.0, 0.0, 0.58, 0.53, 0.59, 0.0, 0.0, 0.0, 0.0, 0.0, 0.0, 0.0, 0.0, 0.0, -0.61, -0.56, -0.56, -1.2, -1.12, -1.12, -1.23, -0.58, -0.58, 0.0, 0.0, 0.0, 0.58, 0.58, 1.14, 1.05, 1.05, 1.14, 0.58, 0.58, 0.58, 0.57, 1.2, 1.1, 1.18, 1.09, 1.73, 1.84, 1.71, 1.73, 1.1, 1.12, 1.12, 1.8, 1.84, 1.88, 1.73, 1.73, 1.73, 2.4, 2.4, 2.86, 3.15, 3.76, 4.11, 4.11, 4.11, 4.19, 4.54, 4.43, 3.63, 2.6, 5.01, 6.0, 5.75, 3.49, 1.55, 3.87, 7.22, 5.51, 1.56, 0.0, 0.0, 0.0, 0.72, 1.47, 1.44, 1.49, 1.88, 2.44, 2.44, 2.4, 2.51, 2.51, 1.73, 2.26, 2.31, 2.83, 4.4, 5.2, 5.2, 0.57, 0.57, 0.58, 0.0, 0.0, 0.53, 0.59, 0.59, 0.0, 0.0, 0.0, 0.0, 0.0, 0.0, 0.0, 0.0, 0.0, -0.56, -0.56, -1.1, -1.12, -1.12, -1.14, -1.14, -0.58, -0.59, 0.0, 0.0, 0.0, 0.53, 0.58, 1.14, 1.14, 1.14, 1.14, 1.14, 1.14, 0.58, 0.58, 1.12, 1.2, 1.18, 1.18, 1.73, 1.73, 1.73, 1.73, 1.1, 1.12, 1.12, 1.8, 1.84, 1.73, 1.08, 1.23, 1.19, 1.73, 1.73, 2.2, 2.86, 2.86, 4.02, 3.76, 3.76, 5.01, 5.01, 3.63, 3.63, 4.19, 6.16, 6.54, 7.07, 4.71, 4.0, 4.06, 6.54, 7.8, 4.87, 0.85, 0.0, 0.0, 0.0, 0.0, 0.82, 1.55, 2.44, 2.66, 3.47, 2.8, 2.64, 2.51, 2.51, 1.73, 2.26, 2.12, 2.83, 4.31, 4.31, 0.57, 0.57, 0.58, 0.0, 0.0, 0.0, 0.0, 0.59, 0.0, 0.0, 0.0, 0.0, 0.0, 0.0, 0.0, 0.0, 0.0, -0.56, -0.56, -1.1, -1.12, -1.14, -1.14, -1.14, -0.59, 0.0, 0.0, 0.61, 0.54, 0.59, 0.58, 1.14, 1.16, 1.16, 1.16, 1.14, 1.14, 1.14, 1.14, 1.12, 1.12, 1.2, 1.1, 1.1, 1.1, 1.73, 1.73, 1.1, 1.12, 1.23, 1.14, 1.84, 1.73, 1.23, 0.63, 0.63, 1.08, 1.19, 1.73, 2.86, 2.86, 3.12, 4.02, 3.63, 3.63, 3.76, 2.76, 2.53, 3.93, 6.02, 6.8, 6.44, 5.46, 5.76, 5.51, 6.31, 8.03, 7.91, 4.87, 2.28, 0.72, 0.0, 0.87, 1.74, 2.84, 3.48, 3.35, 3.47, 3.33, 3.55, 2.51, 2.51, 1.73, 1.65, 1.49, 2.12, 3.61, 3.61, 1.12, 1.12, 0.53, 0.0, 0.0, 0.0, 0.0, 0.59, 0.0, 0.0, 0.0, 0.0, 0.0, 0.0, 0.0, 0.0, 0.0, -0.59, -0.59, -1.1, -1.12, -1.67, -1.67, -1.16, -0.61, 0.0, 0.0, 0.55, 1.07, 1.16, 1.16, 1.16, 1.16, 1.16, 1.16, 1.16, 1.05, 1.14, 1.14, 0.58, 0.57, 1.12, 1.2, 0.84, 1.12, 1.2, 1.2, 1.2, 0.57, 0.58, 1.14, 1.7, 1.73, 1.23, 0.57, 0.57, 0.63, 1.08, 2.22, 2.86, 3.12, 3.49, 4.02, 3.63, 3.47, 4.02, 2.76, 2.53, 3.83, 5.59, 5.82, 5.77, 6.64, 9.17, 7.51, 6.56, 6.2, 6.24, 5.67, 4.5, 3.07, 2.0, 2.0, 2.6, 3.83, 4.19, 4.11, 3.47, 3.33, 2.51, 2.51, 2.26, 1.65, 1.65, 1.65, 1.49, 2.31, 2.23, 1.12, 1.12, 0.57, 0.58, 0.0, 0.0, 0.54, 0.59, 0.0, 0.0, 0.0, 0.0, 0.0, 0.0, 0.0, 0.0, 0.0, -0.59, -0.59, -0.56, -1.2, -2.32, -2.36, -1.73, -1.27, -0.61, 0.0, 0.57, 1.73, 1.7, 1.84, 1.84, 1.84, 1.16, 1.16, 1.16, 1.16, 1.05, 1.14, 0.58, 0.57, 0.57, 0.57, 0.79, 1.12, 1.12, 1.12, 0.57, 0.58, 0.58, 0.59, 1.16, 1.73, 1.08, 0.57, 0.57, 0.63, 1.23, 2.44, 2.86, 3.12, 3.78, 4.47, 3.63, 3.47, 3.76, 3.49, 3.48, 4.57, 4.8, 5.43, 7.81, 8.54, 8.93, 9.4, 8.05, 5.55, 4.04, 2.87, 3.09, 2.6, 2.68, 2.6, 3.6, 3.83, 3.79, 3.22, 2.8, 2.47, 2.64, 1.63, 1.55, 1.65, 1.73, 1.73, 2.2, 2.2, 2.31, 1.12, 1.12, 0.57, 0.58, 0.53, 0.54, 0.54, 0.59, 0.0, 0.0, 0.0, 0.0, 0.0, 0.0, 0.0, 0.0, 0.0, 0.0, -0.55, -0.59, -1.1, -1.8, -2.18, -2.44, -2.51, -2.15, 0.0, 1.84, 2.48, 2.4, 2.36, 2.16, 1.67, 1.84, 1.16, 1.16, 1.16, 1.16, 0.58, 0.58, 0.58, 0.57, 0.57, 0.57, 0.84, 1.12, 1.12, 1.12, 0.58, 0.59, 0.59, 1.16, 1.73, 1.73, 1.23, 0.57, 1.23, 1.76, 2.44, 2.44, 3.12, 3.49, 2.84, 4.02, 3.76, 3.76, 3.48, 3.22, 4.15, 5.2, 6.7, 8.8, 9.21, 9.48, 11.52, 11.38, 9.54, 6.47, 4.01, 1.66, 2.4, 2.84, 3.07, 3.07, 3.16, 3.16, 2.53, 2.6, 2.47, 1.72, 1.63, 1.73, 1.63, 1.84, 2.76, 2.2, 1.49, 2.2, 0.57, 0.57, 0.57, 0.58, 0.53, 0.54, 0.54, 0.59, 0.0, 0.0, 0.0, 0.0, 0.0, 0.0, 0.0, 0.0, 0.0, 0.0, -0.55, -0.55, -1.09, -1.18, -1.67, -2.84, -3.49, -1.73, 1.76, 4.07, 3.79, 2.84, 2.36, 2.16, 1.67, 1.67, 1.7, 1.16, 1.16, 0.53, 0.58, 0.58, 0.58, 0.58, 0.58, 0.57, 0.57, 0.84, 1.12, 1.65, 1.12, 0.58, 0.59, 1.16, 1.73, 1.73, 1.76, 1.23, 1.23, 1.73, 1.73, 2.44, 2.44, 2.86, 4.02, 3.76, 3.76, 5.01, 3.58, 3.72, 4.8, 7.21, 8.8, 9.36, 9.03, 8.63, 9.1, 11.87, 12.87, 12.19, 9.66, 6.42, 5.3, 5.38, 4.5, 3.0, 2.3, 2.3, 2.4, 2.6, 2.47, 2.47, 2.6, 2.6, 2.95, 2.84, 2.21, 1.9, 1.2, 1.2, 0.57, 0.57, 0.57, 0.58, 0.53, 0.54, 0.54, 0.59, 0.0, 0.0, 0.0, 0.0, 0.0, 0.0, 0.0, 0.0, 0.0, 0.0, -0.55, -0.58, -1.16, -1.16, -1.73, -2.26, -2.26, 0.0, 3.37, 4.73, 3.47, 2.36, 1.7, 1.84, 1.67, 1.67, 1.84, 1.16, 1.16, 0.58, 0.58, 0.58, 0.58, 0.58, 0.58, 0.58, 0.57, 0.57, 1.2, 1.2, 1.2, 0.57, 0.0, 0.59, 1.19, 1.76, 1.76, 1.11, 1.23, 1.73, 1.73, 1.76, 1.76, 2.22, 3.15, 3.76, 5.01, 5.81, 5.81, 5.4, 6.79, 9.06, 9.35, 8.45, 8.41, 7.12, 7.2, 8.0, 10.75, 12.07, 11.95, 11.25, 10.01, 9.58, 7.77, 4.4, 2.29, 1.83, 2.4, 3.63, 3.35, 3.16, 3.35, 3.39, 3.13, 2.68, 1.79, 1.79, 1.79, 1.79, 0.57, 0.57, 0.57, 0.58, 1.16, 0.54, 0.54, 0.59, 0.0, 0.0, 0.0, 0.0, 0.0, 0.0, 0.0, 0.0, 0.0, 0.0, 0.0, -0.58, -1.16, -1.14, -1.14, -1.12, -0.56, 1.15, 3.3, 4.03, 3.42, 2.32, 1.67, 1.26, 1.26, 1.16, 1.16, 1.16, 1.14, 0.58, 0.58, 0.0, 0.0, 0.0, 0.58, 0.58, 0.53, 0.57, 0.57, 1.2, 1.1, 0.56, 0.0, 0.0, 0.54, 1.76, 1.8, 1.27, 1.23, 1.08, 1.08, 1.23, 1.27, 2.07, 3.43, 5.36, 6.23, 6.23, 6.64, 7.21, 8.14, 8.77, 7.55, 7.15, 6.65, 6.51, 5.75, 5.82, 7.18, 9.54, 11.28, 12.19, 12.56, 11.52, 9.26, 6.44, 4.36, 2.41, 2.84, 3.35, 3.58, 3.13, 2.97, 2.97, 2.8, 1.58, 1.58, -0.0, -0.0, -0.0, 0.57, 0.57, 0.58, 0.58, 1.16, 1.07, 0.59, 0.0, 0.0, 0.0, 0.0, 0.0, 0.0, 0.0, 0.0, 0.0, 0.0, 0.0, 0.0, -0.58, -0.54, -0.57, -0.56, -0.59, 0.0, 1.16, 2.3, 2.89, 2.26, 2.29, 1.65, 1.14, 1.14, 1.16, 1.16, 0.59, 0.58, 0.58, 0.58, 0.0, 0.0, 0.0, 0.0, 0.0, 0.0, 0.0, 0.57, 0.57, 0.61, 0.61, 0.0, 0.0, 0.59, 1.11, 1.8, 1.27, 1.11, 0.63, 0.55, 0.0, 0.7, 2.86, 4.11, 5.02, 6.64, 6.23, 5.81, 6.45, 7.42, 7.1, 7.6, 6.26, 6.26, 6.2, 6.45, 6.16, 5.89, 7.25, 8.99, 10.86, 11.65, 10.65, 8.65, 7.19, 5.43, 2.68, 2.54, 2.98, 2.23, 2.23, 2.0, 1.98, 1.13, 0.99, -0.0, -0.0, -0.0, -0.0, 0.58, 0.58, 0.58, 0.59, 1.16, 0.59, 0.0, 0.0, 0.0, 0.0, 0.0, 0.0, 0.0, 0.0, 0.0, 0.0, 0.0, 0.0, 0.0, 0.0, 0.0, 0.0, 0.0, 0.0, 0.0, 1.2, 1.81, 1.73, 1.76, 1.76, 1.76, 1.12, 1.14, 1.14, 0.53, 0.59, 0.53, 0.58, 0.58, 0.0, 0.0, 0.0, 0.0, 0.0, 0.0, 0.0, 0.0, 0.57, 0.57, 0.61, 0.0, 0.0, 0.0, 1.11, 1.84, 1.13, 0.57, 0.57, 0.0, 0.0, 1.88, 4.3, 4.77, 5.09, 5.02, 5.6, 5.2, 5.09, 5.73, 5.81, 5.29, 5.75, 5.81, 6.2, 6.16, 5.82, 5.24, 6.0, 8.05, 9.49, 10.71, 10.6, 8.12, 7.36, 5.16, 0.99, 0.88, 0.73, 0.96, 1.55, 1.41, 0.98, 0.98, -0.0, -0.0, -0.0, -0.0, -0.0, 0.58, 0.58, 0.53, 0.59, 0.59, 0.59, 0.0, 0.0, 0.0, 0.0, 0.0, 0.0, 0.0, 0.0, 0.0, 0.0, 0.0, 0.0, 0.0, 0.0, 0.0, 0.0, 0.0, 0.0, 0.57, 1.14, 1.71, 1.73, 1.1, 1.2, 1.1, 1.1, 1.12, 1.12, 0.58, 0.58, 0.58, 0.58, 0.58, 0.58, 0.0, 0.0, 0.0, 0.0, 0.0, 0.0, 0.0, 0.0, 0.57, 0.61, 0.0, 0.0, 0.0, 0.57, 1.84, 1.13, 0.57, 0.0, 0.0, 0.57, 3.35, 4.6, 4.6, 4.6, 5.02, 5.6, 5.2, 5.64, 5.36, 4.02, 4.82, 5.36, 5.81, 6.2, 6.16, 5.82, 5.77, 6.53, 7.24, 8.66, 9.49, 9.92, 9.79, 8.85, 4.02, -0.81, -0.76, -0.0, -0.0, 0.96, 1.08, 1.08, 0.88, -0.0, -0.0, -0.0, -0.0, -0.0, 0.58, 0.58, 0.59, 0.59, 0.59, 0.0, 0.0, 0.0, 0.0, 0.0, 0.0, 0.0, 0.0, 0.0, 0.0, 0.0, 0.0, 0.0, 0.0, 0.0, 0.0, 0.0, 0.0, 0.54, 0.54, 1.16, 1.16, 1.18, 1.1, 0.61, 0.56, 0.56, 0.57, 0.57, 0.57, 0.57, 0.58, 0.58, 0.0, 0.0, 0.0, 0.0, 0.0, 0.0, 0.0, 0.0, 0.0, 0.0, 0.57, 0.61, 0.0, 0.0, 0.0, 0.61, 1.84, 1.27, 0.57, 0.0, 0.0, 1.8, 3.78, 4.27, 4.11, 4.19, 4.6, 6.23, 5.6, 5.36, 4.47, 3.47, 3.47, 4.47, 5.81, 6.2, 6.45, 5.82, 6.18, 7.06, 7.9, 8.85, 8.95, 9.66, 12.02, 11.77, 4.41, -2.29, -1.6, -0.76, -0.0, 0.81, 1.83, 1.08, 1.08, 1.08, -0.0, 0.98, 0.98, 0.98, 0.53, 0.53, 0.0, 0.0, 0.0, 0.0, 0.0, 0.0, 0.0, 0.0, 0.0, 0.0, 0.0, 0.0, 0.0, 0.0, 0.0, 0.0, 0.0, 0.0, 0.0, 0.0, 0.0, 0.0, 0.58, 0.58, 1.09, 1.18, 0.56, 0.61, 0.56, 0.56, 0.57, 0.57, 0.58, 1.12, 1.12, 0.53, 0.0, 0.0, 0.0, 0.0, 0.0, 0.0, 0.0, 0.0, 0.0, 0.0, 0.0, 0.57, 0.0, 0.0, 0.0, 0.59, 1.8, 1.27, 0.57, 0.57, 0.63, 1.76, 3.48, 4.0, 4.11, 4.11, 4.6, 5.51, 5.51, 4.66, 4.38, 4.38, 4.38, 4.47, 5.81, 6.26, 6.02, 6.57, 6.8, 6.79, 8.03, 8.93, 9.17, 9.4, 11.38, 12.72, 6.01, -3.16, -0.0, -0.0, -0.0, 0.87, 1.66, 2.0, 0.98, 0.98, 0.98, 1.98, 1.98, 1.98, 0.0, 0.0, 0.0, 0.0, 0.0, 0.0, 0.0, 0.0, 0.0, 0.0, 0.0, 0.0, 0.0, -0.58, -0.57, -0.57, -0.61, -0.56, -0.59, -0.59, 0.0, 0.0, 0.0, 0.0, 0.0, 0.55, 0.59, 0.56, 0.56, 0.56, 0.0, 0.0, 0.0, 0.58, 0.58, 0.58, 0.57, 0.57, 0.0, 0.0, 0.0, 0.0, 0.0, 0.0, 0.0, 0.0, 0.0, 0.0, 0.0, 0.57, 0.0, 0.0, 0.0, 0.54, 1.08, 1.23, 1.23, 0.55, 1.08, 1.73, 2.86, 3.43, 3.6, 4.11, 4.34, 5.51, 5.51, 5.59, 5.75, 6.2, 5.75, 4.92, 4.47, 5.36, 6.2, 6.7, 6.8, 6.82, 7.06, 7.59, 8.22, 8.12, 9.17, 8.61, 4.98, -0.0, 1.2, 0.0, 0.0, 0.0, 0.99, 0.87, 0.76, 1.13, 1.13, 2.21, 2.21, 2.21, 0.0, 0.0, 0.0, 0.0, 0.0, 0.0, 0.0, 0.0, 0.0, 0.0, 0.0, 0.0, -0.58, -0.58, -0.57, -0.57, -0.61, -0.56, -0.56, -0.59, 0.0, 0.0, 0.0, 0.0, 0.0, 0.0, 0.0, 0.0, 0.0, 0.0, 0.0, 0.56, 0.57, 0.58, 0.0, 0.0, 0.0, 0.0, 0.0, 0.0, 0.0, 0.0, 0.0, 0.0, 0.0, 0.0, 0.0, 0.0, 0.0, 0.0, 0.0, 0.0, 0.0, 0.53, 0.54, 1.19, 0.55, 0.61, 1.07, 1.73, 2.22, 2.84, 3.07, 3.7, 4.3, 4.34, 5.29, 5.75, 6.26, 6.71, 6.2, 6.2, 5.81, 5.81, 5.75, 6.45, 6.4, 6.44, 6.44, 6.73, 7.27, 7.9, 7.36, 4.87, 2.2, 3.2, 2.54, 1.34, 0.0, 0.0, -0.0, -0.0, -0.0, 0.99, 2.21, 2.8, 2.8, 2.8, 0.0, 0.0, 0.0, 0.0, 0.0, 0.0, 0.0, 0.0, 0.0, 0.0, -0.53, -0.58, -0.58, -0.58, -0.57, -0.57, -0.61, -0.56, -0.56, -0.56, -0.56, 0.0, 0.0, 0.0, 0.0, 0.0, 0.0, 0.0, 0.0, 0.0, 0.0, 0.61, 0.61, 0.57, 0.0, 0.0, 0.0, 0.0, 0.0, 0.0, 0.0, 0.0, 0.0, 0.0, 0.0, 0.0, 0.0, 0.0, 0.0, 0.0, 0.0, 0.0, 0.0, 0.0, 0.59, 0.54, 0.61, 0.54, 0.59, 1.19, 1.76, 2.53, 3.07, 3.6, 4.3, 4.3, 5.29, 5.81, 5.81, 5.81, 5.81, 6.26, 6.65, 6.26, 5.75, 6.02, 6.7, 6.8, 6.18, 6.82, 7.41, 7.59, 7.24, 3.1, 4.11, 3.22, 2.21, 1.0, -0.0, -0.99, -0.79, -0.0, -0.0, 0.99, 2.21, 3.39, 3.39, 3.39, 0.0, 0.0, 0.0, 0.0, 0.0, 0.0, 0.0, 0.0, 0.0, 0.0, -0.53, -0.58, -0.58, -0.58, -0.57, -0.57, -0.61, -0.56, -0.56, -0.56, -0.56, -0.56, 0.0, 0.0, 0.0, 0.0, 0.0, 0.0, 0.0, 0.0, 0.0, 0.0, 0.57, 0.57, 0.0, 0.0, 0.0, 0.0, 0.0, 0.0, 0.0, 0.0, 0.0, 0.0, 0.0, 0.0, 0.0, 0.0, 0.0, 0.0, 0.0, 0.0, 0.0, 0.0, 0.59, 0.59, 0.54, 0.61, 0.54, 1.19, 1.27, 2.21, 3.07, 3.2, 3.82, 3.98, 4.43, 4.47, 4.92, 5.36, 5.36, 5.81, 6.2, 6.2, 6.2, 6.2, 6.94, 7.12, 6.8, 6.8, 6.82, 7.35, 7.32, 7.23, 3.6, 0.76, 1.55, 0.88, -0.0, -0.76, -0.76, -0.0, -0.0, 1.4, 3.39, 4.92, 4.92, 4.92, 0.0, 0.0, 0.0, 0.0, 0.0, 0.0, 0.0, 0.0, 0.0, -0.53, -0.58, -0.58, -0.58, -0.58, -0.57, -0.57, -0.61, -0.56, -0.56, -0.56, -0.56, -0.56, -0.56, 0.0, 0.0, 0.0, 0.0, 0.0, 0.0, 0.0, 0.0, 0.0, 0.0, 0.0, 0.0, 0.0, 0.0, 0.0, 0.0, 0.0, 0.0, 0.0, 0.0, 0.0, 0.0, 0.0, 0.0, 0.0, 0.0, 0.0, 0.0, 0.0, 0.0, 0.0, 0.0, 0.59, 0.54, 0.61, 0.61, 0.63, 1.13, 1.88, 2.5, 3.32, 3.39, 3.53, 3.98, 4.47, 4.92, 4.92, 4.92, 5.36, 5.75, 5.75, 5.73, 5.81, 6.65, 6.94, 6.7, 6.7, 6.4, 6.79, 8.05, 9.54, 4.29, -0.0, 0.82, 0.82, -0.0, -0.78, -0.82, -0.88, -0.0, 2.4, 4.47, 5.59, 5.59, 5.59, 0.0, 0.0, 0.0, 0.0, 0.0, 0.0, 0.0, 0.0, -0.53, -0.53, -0.58, -0.58, -0.58, -0.62, -1.12, -1.12, -1.2, -1.1, -1.1, -0.61, -0.61, -0.56, -0.56, -0.57, 0.0, 0.0, 0.0, 0.0, 0.0, 0.0, 0.0, 0.0, 0.0, 0.0, 0.0, 0.0, 0.0, 0.0, 0.0, 0.0, 0.0, 0.0, 0.0, 0.0, 0.0, 0.0, 0.0, 0.0, 0.0, 0.0, 0.0, 0.0, 0.0, 0.0, 0.0, 0.59, 0.54, 0.61, 0.55, 0.66, 1.16, 1.88, 2.5, 2.91, 2.91, 3.07, 3.58, 4.02, 3.98, 4.38, 4.92, 5.36, 5.81, 5.75, 5.73, 5.36, 5.36, 5.81, 5.75, 6.02, 5.6, 6.01, 5.76, 7.11, 4.93, -2.24, -0.0, -0.0, -0.82, -0.82, -0.88, -0.0, 1.26, 3.9, 6.02, 7.35, 7.35, 7.35, 0.0, 0.0, 0.0, 0.0, 0.0, 0.0, 0.0, 0.0, -0.59, -0.53, -0.58, -0.58, -0.58, -1.23, -1.12, -1.12, -1.2, -1.1, -1.1, -1.2, -0.61, -0.56, -0.56, -0.57, 0.0, 0.0, 0.0, 0.0, 0.0, 0.0, 0.0, 0.0, 0.0, 0.0, 0.0, 0.0, 0.0, 0.0, 0.0, 0.0, 0.0, 0.0, 0.0, 0.0, 0.0, 0.0, 0.0, 0.0, 0.0, 0.0, 0.0, 0.0, 0.0, 0.0, 0.0, 0.59, 0.54, 0.61, 0.63, 0.59, 1.16, 1.61, 2.5, 2.8, 2.6, 2.6, 3.13, 3.58, 3.58, 4.47, 4.92, 5.36, 5.36, 5.81, 5.81, 5.36, 4.82, 5.36, 4.92, 4.82, 4.29, 3.47, 3.45, 3.11, 3.22, 0.0, -3.07, -1.52, -1.7, -1.66, -0.99, 1.26, 3.74, 5.82, 7.42, 8.8, 8.8, 8.8, -0.53, -0.53, -0.59, -0.59, 0.0, 0.0, 0.0, -0.59, -0.53, -0.58, -0.58, -0.58, -1.14, -1.23, -1.12, -1.2, -1.2, -1.1, -1.2, -1.2, -1.2, -0.61, -0.61, -0.57, -0.57, 0.0, 0.0, 0.0, 0.0, 0.0, 0.0, 0.0, 0.0, 0.0, 0.0, 0.0, 0.0, 0.0, 0.0, 0.0, 0.0, 0.0, 0.0, 0.0, 0.0, 0.0, 0.0, 0.0, 0.0, 0.0, 0.0, 0.0, 0.0, 0.0, 0.0, 0.0, 0.54, 0.61, 0.63, 0.59, 1.16, 1.2, 1.9, 2.4, 2.12, 2.24, 2.24, 2.68, 3.13, 4.47, 4.92, 4.92, 5.36, 5.36, 5.36, 4.92, 4.38, 3.9, 4.02, 3.82, 3.16, 1.99, 1.75, 0.8, 0.78, 0.0, -4.29, -3.83, -2.53, -2.4, 0.0, 2.84, 6.07, 8.05, 9.03, 9.03, 9.03, 9.03, -0.58, -0.58, -0.59, -0.59, -0.59, 0.0, 0.0, -0.59, -0.53, -0.58, -0.58, -1.14, -1.14, -1.12, -1.12, -1.2, -1.2, -1.2, -1.2, -1.2, -1.2, -1.2, -0.61, -0.57, -0.57, -0.58, -0.58, -0.58, -0.58, 0.0, 0.0, 0.0, 0.0, 0.0, 0.0, 0.0, 0.0, 0.0, 0.0, 0.0, 0.0, 0.0, 0.0, 0.0, 0.0, 0.0, 0.0, 0.0, 0.0, 0.0, 0.0, 0.0, 0.0, 0.0, 0.0, 0.0, 0.54, 0.61, 0.63, 0.59, 0.61, 1.2, 1.9, 1.86, 1.26, 1.34, 1.79, 2.12, 2.68, 2.68, 3.13, 4.47, 4.47, 4.47, 4.47, 4.47, 4.02, 3.58, 3.13, 3.39, 2.23, 1.7, 0.84, 0.8, 0.0, 0.0, -1.65, -3.0, -1.66, 0.0, 1.7, 4.65, 6.68, 8.42, 9.05, 8.67, 8.67, 8.67, -0.58, -0.58, -0.53, -0.59, -0.59, -0.59, -0.59, -0.53, -0.53, -0.58, -1.14, -1.14, -1.14, -1.12, -1.12, -1.2, -1.2, -1.2, -1.2, -1.2, -1.2, -1.2, -0.57, -0.57, -0.57, -0.57, -0.58, -0.58, -0.58, 0.0, 0.0, 0.0, 0.0, 0.0, 0.0, 0.0, 0.0, 0.0, 0.0, 0.0, 0.0, 0.0, 0.0, 0.0, 0.0, 0.0, 0.0, 0.0, 0.0, 0.0, 0.0, 0.0, 0.0, 0.0, 0.0, 0.0, 0.0, 0.0, 0.0, 0.0, 0.53, 0.65, 1.24, 1.24, 0.8, 1.34, 1.34, 1.6, 1.79, 2.24, 2.68, 4.47, 4.47, 4.47, 4.02, 3.58, 3.58, 2.68, 2.68, 2.4, 2.23, 1.99, 0.84, 0.86, 1.59, 1.58, 0.82, 0.0, 0.0, 1.44, 3.15, 5.21, 7.02, 7.95, 7.95, 7.69, 7.69, 7.69, -0.58, -0.58, -0.53, -0.59, -0.59, -0.59, -0.59, -0.59, -0.53, -1.14, -1.14, -1.14, -1.14, -1.12, -1.12, -1.2, -1.2, -1.2, -1.2, -1.2, -1.2, -1.12, -0.57, -0.57, -0.57, -0.58, -0.58, 0.0, 0.0, 0.0, 0.0, 0.0, 0.0, 0.0, 0.0, 0.0, 0.0, 0.0, 0.0, 0.0, 0.0, 0.0, 0.0, 0.0, 0.0, 0.0, 0.0, 0.0, 0.0, 0.0, 0.0, 0.0, 0.0, 0.0, 0.0, 0.0, 0.0, 0.0, 0.0, 0.0, 0.0, 0.54, 0.71, 0.71, 0.8, 0.95, 0.89, 1.34, 1.34, 1.79, 2.24, 3.13, 3.13, 4.47, 3.58, 3.13, 3.13, 2.68, 2.24, 2.68, 2.21, 1.83, 1.63, 1.62, 2.35, 3.26, 3.9, 3.34, 2.49, 3.36, 5.06, 5.76, 6.68, 6.68, 7.06, 6.79, 6.79, 6.79, -0.58, -0.58, -0.53, -0.59, -0.59, -0.59, -0.59, -0.59, -0.53, -1.14, -1.14, -1.14, -1.14, -1.12, -1.12, -1.2, -1.2, -1.2, -1.2, -1.2, -1.2, -1.12, -0.57, -0.57, -0.57, -0.58, -0.58, 0.0, 0.0, 0.0, 0.0, 0.0, 0.0, 0.0, 0.0, 0.0, 0.0, 0.0, 0.0, 0.0, 0.0, 0.0, 0.0, 0.0, 0.0, 0.0, 0.0, 0.0, 0.0, 0.0, 0.0, 0.0, 0.0, 0.0, 0.0, 0.0, 0.0, 0.0, 0.0, 0.0, 0.0, 0.54, 0.71, 0.71, 0.8, 0.95, 0.89, 1.34, 1.34, 1.79, 2.24, 3.13, 3.13, 4.47, 3.58, 3.13, 2.68, 2.68, 2.24, 2.68, 2.21, 2.0, 1.84, 1.68, 2.39, 3.9, 5.61, 5.51, 4.93, 5.0, 5.52, 5.76, 6.73, 6.01, 6.11, 5.82, 5.82, 5.82]}]